VK4ZU-13 Weather Reports


time (UTC)temp
F
wind
direction
speed
knots
gust
knots
rain 1hr
in
rain 24hr
in
rain mn
in
humidity
%
barometer
mb
20260510121711 63 85 0.0 0.0 0.00 0.00 0.00 81 1027.7
20260510121625 63 85 0.0 0.0 0.00 0.00 0.00 81 1027.8
20260510121556 63 85 0.0 0.0 0.00 0.00 0.00 81 1027.8
20260510121340 63 85 0.0 0.9 0.00 0.00 0.00 80 1027.8
20260510121231 63 85 0.0 2.6 0.00 0.00 0.00 80 1028.0
20260510121128 63 85 0.0 2.6 0.00 0.00 0.00 80 1028.0
20260510121024 63 85 0.0 2.6 0.00 0.00 0.00 80 1027.9
20260510120924 63 85 0.0 2.6 0.00 0.00 0.00 80 1027.9
20260510120814 63 85 0.0 2.6 0.00 0.00 0.00 80 1027.9
20260510120706 63 85 0.0 2.6 0.00 0.00 0.00 80 1027.7
20260510120554 63 85 0.0 2.6 0.00 0.00 0.00 81 1027.9
20260510120455 63 85 0.0 2.6 0.00 0.00 0.00 80 1027.8
20260510120352 63 85 0.9 2.6 0.00 0.00 0.00 81 1027.9
20260510120241 63 85 0.0 1.7 0.00 0.00 0.00 81 1027.7
20260510120132 63 157 0.0 1.7 0.00 0.00 0.00 80 1027.8
20260510120023 63 157 0.0 1.7 0.00 0.00 0.00 80 1027.8
20260510115916 63 157 0.0 1.7 0.00 0.00 0.00 80 1027.8
20260510115802 63 265 0.0 1.7 0.00 0.00 0.00 80 1027.8
20260510115654 63 265 0.0 1.7 0.00 0.00 0.00 80 1027.8
20260510115542 63 265 0.0 1.7 0.00 0.00 0.00 80 1027.9
20260510115434 63 265 0.0 1.7 0.00 0.00 0.00 80 1027.9
20260510115321 63 265 0.0 1.7 0.00 0.00 0.00 80 1028.0
20260510115212 63 265 0.0 0.9 0.00 0.00 0.00 80 1027.9
20260510115103 63 265 0.0 1.7 0.00 0.00 0.00 80 1027.9
20260510114953 63 265 0.0 1.7 0.00 0.00 0.00 80 1028.1
20260510114853 63 265 0.0 1.7 0.00 0.00 0.00 80 1028.0
20260510114751 63 265 0.0 1.7 0.00 0.00 0.00 80 1028.0
20260510114642 63 265 0.0 1.7 0.00 0.00 0.00 80 1028.0
20260510114530 63 265 0.0 1.7 0.00 0.00 0.00 80 1028.0
20260510114423 63 265 0.0 1.7 0.00 0.00 0.00 80 1028.0
20260510114202 63 265 0.0 1.7 0.00 0.00 0.00 80 1028.1
20260510114052 63 265 0.9 2.6 0.00 0.00 0.00 79 1028.0
20260510113941 63 265 0.9 2.6 0.00 0.00 0.00 80 1028.0
20260510113832 63 265 0.9 2.6 0.00 0.00 0.00 79 1028.1
20260510113722 63 265 0.9 2.6 0.00 0.00 0.00 79 1028.0
20260510113612 63 265 0.9 2.6 0.00 0.00 0.00 79 1028.0
20260510113502 63 265 1.7 3.5 0.00 0.00 0.00 79 1027.9
20260510113353 63 265 1.7 3.5 0.00 0.00 0.00 79 1027.9
20260510113253 63 265 1.7 3.5 0.00 0.00 0.00 79 1027.9
20260510113151 63 265 0.9 3.5 0.00 0.00 0.00 79 1027.8
20260510113042 63 221 0.9 3.5 0.00 0.00 0.00 79 1027.8
20260510112823 63 242 0.9 3.5 0.00 0.00 0.00 79 1027.8
20260510112718 63 261 0.9 3.5 0.00 0.00 0.00 79 1027.9
20260510112604 63 259 0.9 2.6 0.00 0.00 0.00 79 1027.8
20260510112500 64 50 0.9 2.6 0.00 0.00 0.00 79 1027.8
20260510112357 64 44 0.9 2.6 0.00 0.00 0.00 79 1027.8
20260510112258 64 271 0.9 2.6 0.00 0.00 0.00 79 1027.8
20260510112147 64 271 0.9 2.6 0.00 0.00 0.00 79 1027.8
20260510112038 64 275 0.9 2.6 0.00 0.00 0.00 79 1027.7
20260510111928 64 266 0.9 2.6 0.00 0.00 0.00 79 1027.7
20260510111818 64 266 0.9 2.6 0.00 0.00 0.00 78 1027.7
20260510111717 64 315 0.9 3.5 0.00 0.00 0.00 78 1027.7
20260510111616 64 315 1.7 3.5 0.00 0.00 0.00 78 1027.7
20260510111506 64 355 1.7 3.5 0.00 0.00 0.00 78 1027.5
20260510111355 64 235 1.7 3.5 0.00 0.00 0.00 78 1027.5
20260510111253 64 235 1.7 3.5 0.00 0.00 0.00 78 1027.6
20260510111150 64 235 0.9 3.5 0.00 0.00 0.00 78 1027.6
20260510111050 64 235 0.9 3.5 0.00 0.00 0.00 78 1027.5
20260510110945 64 235 0.9 3.5 0.00 0.00 0.00 78 1027.6
20260510110840 64 235 0.9 3.5 0.00 0.00 0.00 78 1027.7
20260510110739 64 288 0.9 3.5 0.00 0.00 0.00 78 1027.6
20260510110632 64 238 0.9 3.5 0.00 0.00 0.00 78 1027.6
20260510110520 64 248 0.9 3.5 0.00 0.00 0.00 77 1027.6
20260510110418 64 248 0.9 3.5 0.00 0.00 0.00 77 1027.6
20260510110316 64 248 0.9 3.5 0.00 0.00 0.00 77 1027.7
20260510110218 64 248 0.9 3.5 0.00 0.00 0.00 77 1027.6
20260510110111 64 248 0.9 3.5 0.00 0.00 0.00 77 1027.6
20260510110007 64 248 0.9 3.5 0.00 0.00 0.00 77 1027.6
20260510105909 64 248 0.9 3.5 0.00 0.00 0.00 77 1027.5
20260510105807 64 248 0.9 3.5 0.00 0.00 0.00 77 1027.5
20260510105705 64 248 0.9 3.5 0.00 0.00 0.00 77 1027.5
20260510105604 65 248 0.9 3.5 0.00 0.00 0.00 77 1027.5
20260510105457 65 242 0.9 2.6 0.00 0.00 0.00 76 1027.5
20260510105353 65 242 0.9 2.6 0.00 0.00 0.00 76 1027.4
20260510105251 65 242 0.9 2.6 0.00 0.00 0.00 76 1027.5
20260510105152 65 242 0.9 2.6 0.00 0.00 0.00 76 1027.4
20260510105045 65 242 0.9 2.6 0.00 0.00 0.00 76 1027.3
20260510104941 65 242 0.9 2.6 0.00 0.00 0.00 76 1027.3
20260510104839 65 241 0.0 2.6 0.00 0.00 0.00 76 1027.2
20260510104741 65 222 0.0 1.7 0.00 0.00 0.00 76 1027.3
20260510104635 65 156 0.0 1.7 0.00 0.00 0.00 76 1027.2
20260510104533 65 156 0.0 2.6 0.00 0.00 0.00 75 1027.2
20260510104435 65 156 0.9 2.6 0.00 0.00 0.00 75 1027.3
20260510104331 65 156 0.9 2.6 0.00 0.00 0.00 75 1027.3
20260510104230 65 156 0.9 2.6 0.00 0.00 0.00 75 1027.3
20260510104128 65 156 0.9 3.5 0.00 0.00 0.00 75 1027.4
20260510104025 65 156 0.9 3.5 0.00 0.00 0.00 75 1027.3
20260510103922 65 156 0.9 3.5 0.00 0.00 0.00 75 1027.4
20260510103821 65 156 0.9 3.5 0.00 0.00 0.00 75 1027.3
20260510103712 65 156 0.9 3.5 0.00 0.00 0.00 75 1027.3
20260510103616 66 291 0.9 3.5 0.00 0.00 0.00 75 1027.2
20260510103512 66 123 0.9 3.5 0.00 0.00 0.00 75 1027.2
20260510103413 66 123 0.9 3.5 0.00 0.00 0.00 75 1027.2
20260510103308 66 283 0.9 3.5 0.00 0.00 0.00 74 1027.1
20260510103206 66 274 0.9 2.6 0.00 0.00 0.00 74 1027.1
20260510103105 66 157 0.9 1.7 0.00 0.00 0.00 74 1027.3
20260510103005 66 51 0.9 1.7 0.00 0.00 0.00 73 1027.3
20260510102802 66 51 0.9 1.7 0.00 0.00 0.00 74 1027.3
20260510102700 66 51 0.9 1.7 0.00 0.00 0.00 74 1027.2
20260510102600 66 51 0.9 1.7 0.00 0.00 0.00 74 1027.2
20260510102455 66 51 0.9 1.7 0.00 0.00 0.00 74 1027.2
20260510102354 66 51 0.9 1.7 0.00 0.00 0.00 74 1027.1
20260510102252 66 51 0.9 1.7 0.00 0.00 0.00 74 1027.2
20260510102151 67 51 0.9 1.7 0.00 0.00 0.00 74 1027.2
20260510102053 66 51 0.9 1.7 0.00 0.00 0.00 73 1027.2
20260510101943 67 51 0.9 1.7 0.00 0.00 0.00 73 1027.2
20260510101837 67 51 0.9 2.6 0.00 0.00 0.00 72 1027.1
20260510101727 67 51 1.7 2.6 0.00 0.00 0.00 73 1027.0
20260510101619 67 51 1.7 7.8 0.00 0.00 0.00 73 1027.0
20260510101520 67 51 1.7 7.8 0.00 0.00 0.00 72 1027.0
20260510101412 67 51 1.7 7.8 0.00 0.00 0.00 72 1027.1
20260510101310 67 51 1.7 7.8 0.00 0.00 0.00 72 1026.9
20260510101200 67 51 1.7 7.8 0.00 0.00 0.00 71 1026.9
20260510101056 66 51 1.7 7.8 0.00 0.00 0.00 70 1027.0
20260510100942 67 51 1.7 7.8 0.00 0.00 0.00 70 1027.0
20260510100831 67 66 1.7 7.8 0.00 0.00 0.00 69 1026.9
20260510100722 67 104 1.7 7.8 0.00 0.00 0.00 71 1027.0
20260510100614 67 22 1.7 4.3 0.00 0.00 0.00 71 1026.8
20260510100511 67 9 1.7 4.3 0.00 0.00 0.00 71 1026.8
20260510100408 67 10 1.7 4.3 0.00 0.00 0.00 71 1026.8
20260510100309 67 129 1.7 4.3 0.00 0.00 0.00 72 1026.7
20260510100159 67 121 1.7 7.8 0.00 0.00 0.00 72 1026.7
20260510100105 67 56 1.7 7.8 0.00 0.00 0.00 71 1026.7
20260510100000 66 265 1.7 7.8 0.00 0.00 0.00 71 1026.6
20260510095857 66 9 1.7 7.8 0.00 0.00 0.00 70 1026.5
20260510095756 66 93 1.7 7.8 0.00 0.00 0.00 70 1026.5
20260510095651 66 336 1.7 7.8 0.00 0.00 0.00 69 1026.4
20260510095542 66 209 1.7 7.8 0.00 0.00 0.00 69 1026.5
20260510095434 66 113 1.7 7.8 0.00 0.00 0.00 69 1026.4
20260510095322 66 244 1.7 7.8 0.00 0.00 0.00 69 1026.4
20260510095211 66 221 1.7 7.0 0.00 0.00 0.00 70 1026.4
20260510095101 66 117 1.7 7.0 0.00 0.00 0.00 71 1026.4
20260510094952 66 194 1.7 7.0 0.00 0.00 0.00 71 1026.5
20260510094842 66 123 1.7 7.0 0.00 0.00 0.00 71 1026.5
20260510094732 66 121 1.7 7.0 0.00 0.00 0.00 73 1026.5
20260510094622 66 110 0.9 7.0 0.00 0.00 0.00 74 1026.6
20260510094512 66 89 1.7 5.2 0.00 0.00 0.00 74 1026.6
20260510094408 66 91 1.7 5.2 0.00 0.00 0.00 73 1026.6
20260510094302 66 344 0.9 5.2 0.00 0.00 0.00 74 1026.7
20260510094200 66 143 1.7 5.2 0.00 0.00 0.00 74 1026.8
20260510094050 66 182 1.7 5.2 0.00 0.00 0.00 74 1026.7
20260510093942 65 179 1.7 5.2 0.00 0.00 0.00 74 1026.8
20260510093843 65 137 1.7 4.3 0.00 0.00 0.00 74 1026.8
20260510093742 65 153 1.7 10.4 0.00 0.00 0.00 74 1026.7
20260510093633 65 15 1.7 10.4 0.00 0.00 0.00 75 1026.7
20260510093522 65 270 1.7 10.4 0.00 0.00 0.00 75 1026.6
20260510093421 65 129 1.7 10.4 0.00 0.00 0.00 75 1026.6
20260510093318 65 129 1.7 10.4 0.00 0.00 0.00 75 1026.7
20260510093225 65 130 1.7 10.4 0.00 0.00 0.00 75 1026.9
20260510093106 65 23 2.6 10.4 0.00 0.00 0.00 75 1026.7
20260510092958 65 111 2.6 10.4 0.00 0.00 0.00 75 1026.8
20260510092848 65 112 1.7 10.4 0.00 0.00 0.00 75 1026.7
20260510092746 65 125 1.7 9.6 0.00 0.00 0.00 76 1026.7
20260510092645 65 92 1.7 9.6 0.00 0.00 0.00 76 1026.8
20260510092537 65 134 1.7 9.6 0.00 0.00 0.00 76 1026.8
20260510092425 65 63 0.9 9.6 0.00 0.00 0.00 76 1026.8
20260510092315 65 63 0.9 9.6 0.00 0.00 0.00 77 1026.7
20260510092214 65 63 0.9 9.6 0.00 0.00 0.00 77 1026.7
20260510092109 66 117 0.9 9.6 0.00 0.00 0.00 77 1026.8
20260510092010 66 67 0.0 4.3 0.00 0.00 0.00 77 1026.8
20260510091859 66 146 0.0 1.7 0.00 0.00 0.00 77 1026.8
20260510091749 66 45 0.0 0.9 0.00 0.00 0.00 77 1026.8
20260510091638 66 342 0.0 0.9 0.00 0.00 0.00 77 1026.8
20260510091418 66 273 0.0 0.0 0.00 0.00 0.00 77 1026.9
20260510091215 66 273 0.0 0.0 0.00 0.00 0.00 76 1026.9
20260510091107 66 303 0.0 0.0 0.00 0.00 0.00 76 1026.9
20260510091000 66 303 0.0 0.0 0.00 0.00 0.00 76 1026.9
20260510090848 66 115 0.0 0.0 0.00 0.00 0.00 76 1026.9
20260510090745 66 115 0.0 0.0 0.00 0.00 0.00 75 1027.0
20260510090647 66 115 0.0 0.0 0.00 0.00 0.00 75 1027.0
20260510090541 66 115 0.0 0.0 0.00 0.00 0.00 75 1027.0
20260510090431 66 115 0.0 0.0 0.00 0.00 0.00 75 1027.0
20260510090321 66 115 0.0 0.0 0.00 0.00 0.00 75 1027.0
20260510090210 66 115 0.0 0.0 0.00 0.00 0.00 74 1027.0
20260510090101 66 115 0.0 0.0 0.00 0.00 0.00 74 1027.0
20260510085956 66 115 0.0 0.0 0.00 0.00 0.00 74 1027.0
20260510085840 66 115 0.0 0.0 0.00 0.00 0.00 74 1027.0
20260510085734 66 115 0.0 0.0 0.00 0.00 0.00 74 1026.9
20260510085633 66 115 0.0 0.0 0.00 0.00 0.00 74 1026.9
20260510085529 66 115 0.0 0.0 0.00 0.00 0.00 73 1027.0
20260510085432 67 115 0.0 0.0 0.00 0.00 0.00 73 1027.0
20260510085330 67 115 0.0 0.0 0.00 0.00 0.00 73 1027.0
20260510085219 67 115 0.0 0.0 0.00 0.00 0.00 74 1026.9
20260510085114 67 115 0.0 0.0 0.00 0.00 0.00 73 1026.9
20260510085010 67 115 0.0 0.0 0.00 0.00 0.00 73 1027.0
20260510084911 67 115 0.0 0.0 0.00 0.00 0.00 73 1027.0
20260510084801 67 115 0.0 0.0 0.00 0.00 0.00 73 1026.9
20260510084651 67 115 0.0 0.0 0.00 0.00 0.00 73 1026.9
20260510084541 67 115 0.0 0.0 0.00 0.00 0.00 73 1026.9
20260510084430 67 115 0.0 0.0 0.00 0.00 0.00 73 1026.9
20260510084321 67 115 0.0 0.0 0.00 0.00 0.00 73 1027.0
20260510084211 67 115 0.0 0.0 0.00 0.00 0.00 73 1026.7
20260510084111 67 115 0.0 0.0 0.00 0.00 0.00 73 1026.7
20260510084008 67 115 0.0 0.0 0.00 0.00 0.00 73 1026.7
20260510083859 67 115 0.0 0.0 0.00 0.00 0.00 73 1026.7
20260510083750 67 115 0.0 0.0 0.00 0.00 0.00 73 1026.8
20260510083639 67 115 0.0 0.0 0.00 0.00 0.00 73 1026.6
20260510083529 68 115 0.0 0.0 0.00 0.00 0.00 73 1026.7
20260510083419 68 115 0.0 0.0 0.00 0.00 0.00 73 1026.6
20260510083316 68 115 0.0 0.0 0.00 0.00 0.00 73 1026.6
20260510083214 68 115 0.0 0.0 0.00 0.00 0.00 73 1026.6
20260510083113 68 115 0.0 0.0 0.00 0.00 0.00 73 1026.4
20260510083011 68 115 0.0 0.0 0.00 0.00 0.00 73 1026.6
20260510082909 68 115 0.0 1.7 0.00 0.00 0.00 73 1026.4
20260510082806 68 115 0.0 1.7 0.00 0.00 0.00 73 1026.4
20260510082702 68 115 0.0 1.7 0.00 0.00 0.00 73 1026.4
20260510082552 68 115 0.0 2.6 0.00 0.00 0.00 72 1026.4
20260510082452 68 49 0.0 2.6 0.00 0.00 0.00 72 1026.3
20260510082340 68 49 0.0 2.6 0.00 0.00 0.00 72 1026.3
20260510082231 68 49 0.0 2.6 0.00 0.00 0.00 72 1026.4
20260510082124 68 49 0.0 2.6 0.00 0.00 0.00 72 1026.4
20260510082011 68 47 0.0 2.6 0.00 0.00 0.00 72 1026.3
20260510081900 68 195 0.0 2.6 0.00 0.00 0.00 72 1026.3
20260510081751 68 195 0.0 2.6 0.00 0.00 0.00 72 1026.2
20260510081641 68 195 0.0 2.6 0.00 0.00 0.00 72 1026.2
20260510081534 68 195 0.0 4.3 0.00 0.00 0.00 72 1026.2
20260510081422 68 186 0.9 4.3 0.00 0.00 0.00 72 1026.1
20260510081319 68 186 0.9 4.3 0.00 0.00 0.00 72 1026.1
20260510081217 68 186 0.9 4.3 0.00 0.00 0.00 72 1026.2
20260510081116 68 186 0.9 4.3 0.00 0.00 0.00 72 1026.1
20260510081025 68 186 0.9 4.3 0.00 0.00 0.00 72 1026.1
20260510080913 68 118 0.9 4.3 0.00 0.00 0.00 72 1026.1
20260510080803 68 82 0.9 4.3 0.00 0.00 0.00 72 1026.1
20260510080653 68 82 0.9 4.3 0.00 0.00 0.00 72 1026.1
20260510080543 68 159 0.9 6.1 0.00 0.00 0.00 72 1026.0
20260510080439 68 171 0.9 6.1 0.00 0.00 0.00 72 1026.1
20260510080323 68 108 0.9 6.1 0.00 0.00 0.00 72 1026.0
20260510080221 68 157 0.9 6.1 0.00 0.00 0.00 73 1026.0
20260510080117 68 157 0.9 6.1 0.00 0.00 0.00 72 1026.0
20260510080018 68 157 0.9 6.1 0.00 0.00 0.00 73 1026.1
20260510075907 68 157 0.9 6.1 0.00 0.00 0.00 73 1026.0
20260510075827 68 157 1.7 6.1 0.00 0.00 0.00 73 1026.1
20260510075647 68 157 1.7 6.1 0.00 0.00 0.00 73 1026.0
20260510075537 68 163 1.7 7.0 0.00 0.00 0.00 73 1026.1
20260510075437 68 163 1.7 7.0 0.00 0.00 0.00 73 1026.0
20260510075335 68 121 1.7 7.0 0.00 0.00 0.00 73 1026.0
20260510075224 68 200 1.7 7.0 0.00 0.00 0.00 73 1026.0
20260510075115 68 211 1.7 7.0 0.00 0.00 0.00 73 1026.0
20260510075004 68 251 2.6 7.0 0.00 0.00 0.00 73 1026.0
20260510074858 68 229 1.7 7.0 0.00 0.00 0.00 73 1026.0
20260510074745 68 147 1.7 7.0 0.00 0.00 0.00 73 1026.0
20260510074635 68 110 1.7 6.1 0.00 0.00 0.00 73 1026.0
20260510074525 68 201 1.7 6.1 0.00 0.00 0.00 73 1026.0
20260510074416 68 107 1.7 6.1 0.00 0.00 0.00 74 1025.9
20260510074304 68 82 1.7 6.1 0.00 0.00 0.00 74 1025.9
20260510074155 68 114 1.7 6.1 0.00 0.00 0.00 74 1025.9
20260510074046 68 126 0.9 4.3 0.00 0.00 0.00 75 1025.8
20260510073936 68 123 0.9 4.3 0.00 0.00 0.00 75 1025.9
20260510073833 68 165 0.9 4.3 0.00 0.00 0.00 75 1025.9
20260510073732 68 134 0.9 4.3 0.00 0.00 0.00 75 1025.9
20260510073623 68 215 0.9 4.3 0.00 0.00 0.00 75 1026.0
20260510073513 68 224 0.9 4.3 0.00 0.00 0.00 75 1026.0
20260510073404 68 161 0.9 4.3 0.00 0.00 0.00 75 1026.0
20260510073256 68 194 0.9 2.6 0.00 0.00 0.00 75 1025.9
20260510073142 68 194 0.0 2.6 0.00 0.00 0.00 75 1025.9
20260510073035 68 194 0.9 2.6 0.00 0.00 0.00 75 1025.8
20260510072923 68 194 0.0 2.6 0.00 0.00 0.00 75 1025.9
20260510072812 68 177 0.0 2.6 0.00 0.00 0.00 75 1025.9
20260510072702 68 194 0.0 2.6 0.00 0.00 0.00 75 1025.8
20260510072554 68 194 0.0 2.6 0.00 0.00 0.00 75 1025.9
20260510072443 68 194 0.0 2.6 0.00 0.00 0.00 75 1026.1
20260510072334 68 194 0.0 2.6 0.00 0.00 0.00 75 1026.0
20260510072232 68 194 0.0 2.6 0.00 0.00 0.00 75 1026.1
20260510072130 68 215 0.0 2.6 0.00 0.00 0.00 75 1026.0
20260510072034 68 258 0.0 1.7 0.00 0.00 0.00 76 1026.1
20260510071911 68 258 0.0 1.7 0.00 0.00 0.00 76 1026.0
20260510071801 68 258 0.0 1.7 0.00 0.00 0.00 76 1026.0
20260510071654 68 258 0.0 1.7 0.00 0.00 0.00 76 1025.9
20260510071541 68 258 0.0 0.9 0.00 0.00 0.00 76 1026.0
20260510071431 68 258 0.9 1.7 0.00 0.00 0.00 76 1026.0
20260510071322 69 258 0.0 1.7 0.00 0.00 0.00 76 1025.9
20260510071102 69 258 0.0 1.7 0.00 0.00 0.00 75 1025.9
20260510070951 69 258 0.0 1.7 0.00 0.00 0.00 75 1026.0
20260510070841 69 258 0.0 1.7 0.00 0.00 0.00 75 1026.0
20260510070731 69 258 0.0 1.7 0.00 0.00 0.00 75 1026.0
20260510070630 69 258 0.0 1.7 0.00 0.00 0.00 74 1026.0
20260510070529 69 258 0.0 1.7 0.00 0.00 0.00 74 1026.1
20260510070419 69 258 0.0 0.0 0.00 0.00 0.00 74 1026.1
20260510070311 69 259 0.0 0.0 0.00 0.00 0.00 74 1026.1
20260510070159 69 259 0.0 0.9 0.00 0.00 0.00 73 1026.1
20260510070048 69 259 0.0 0.9 0.00 0.00 0.00 73 1026.1
20260510065938 69 259 0.0 2.6 0.00 0.00 0.00 73 1026.1
20260510065828 69 259 0.0 2.6 0.00 0.00 0.00 73 1025.9
20260510065718 69 259 0.0 2.6 0.00 0.00 0.00 73 1025.9
20260510065612 70 259 0.0 2.6 0.00 0.00 0.00 73 1026.0
20260510065459 70 259 0.0 2.6 0.00 0.00 0.00 72 1025.9
20260510065349 70 259 0.0 2.6 0.00 0.00 0.00 72 1025.9
20260510065247 70 259 0.0 2.6 0.00 0.00 0.00 72 1025.9
20260510065143 70 259 0.0 2.6 0.00 0.00 0.00 72 1025.8
20260510065048 70 259 0.0 2.6 0.00 0.00 0.00 72 1025.7
20260510064942 70 259 0.0 2.6 0.00 0.00 0.00 72 1025.7
20260510064841 70 294 0.0 1.7 0.00 0.00 0.00 72 1025.7
20260510064731 70 294 0.0 1.7 0.00 0.00 0.00 72 1025.7
20260510064621 70 294 0.0 1.7 0.00 0.00 0.00 72 1025.8
20260510064511 70 294 0.0 1.7 0.00 0.00 0.00 72 1025.7
20260510064400 70 294 0.0 1.7 0.00 0.00 0.00 72 1025.7
20260510064251 70 294 0.0 1.7 0.00 0.00 0.00 71 1025.8
20260510064141 70 294 0.0 1.7 0.00 0.00 0.00 71 1025.8
20260510064034 71 257 0.0 1.7 0.00 0.00 0.00 72 1025.8
20260510063923 71 257 0.0 2.6 0.00 0.00 0.00 71 1025.8
20260510063824 70 257 0.0 2.6 0.00 0.00 0.00 71 1025.8
20260510063725 71 257 0.0 2.6 0.00 0.00 0.00 71 1025.7
20260510063620 71 257 0.0 2.6 0.00 0.00 0.00 71 1025.7
20260510063510 71 257 0.0 2.6 0.00 0.00 0.00 71 1025.7
20260510063409 71 257 0.9 2.6 0.00 0.00 0.00 71 1025.7
20260510063300 71 257 0.9 3.5 0.00 0.00 0.00 71 1025.7
20260510063149 71 257 0.9 3.5 0.00 0.00 0.00 70 1025.6
20260510063045 71 257 0.9 3.5 0.00 0.00 0.00 71 1025.6
20260510062943 71 69 0.9 3.5 0.00 0.00 0.00 71 1025.7
20260510062843 71 69 0.9 3.5 0.00 0.00 0.00 70 1025.6
20260510062752 71 69 0.9 3.5 0.00 0.00 0.00 70 1025.7
20260510062618 71 69 0.9 3.5 0.00 0.00 0.00 70 1025.6
20260510062512 71 69 0.9 3.5 0.00 0.00 0.00 70 1025.6
20260510062359 71 64 0.0 3.5 0.00 0.00 0.00 71 1025.6
20260510062250 71 214 0.0 1.7 0.00 0.00 0.00 71 1025.6
20260510062146 71 214 0.0 1.7 0.00 0.00 0.00 70 1025.6
20260510062044 71 214 0.0 1.7 0.00 0.00 0.00 71 1025.6
20260510061948 71 214 0.0 1.7 0.00 0.00 0.00 70 1025.7
20260510061842 71 214 0.0 1.7 0.00 0.00 0.00 70 1025.5
20260510061742 71 214 0.0 2.6 0.00 0.00 0.00 71 1025.5
20260510061632 71 214 0.9 3.5 0.00 0.00 0.00 70 1025.5
20260510061528 71 256 0.9 3.5 0.00 0.00 0.00 70 1025.5
20260510061424 71 175 0.9 3.5 0.00 0.00 0.00 70 1025.5
20260510061327 71 175 0.9 3.5 0.00 0.00 0.00 71 1025.5
20260510061224 71 175 0.9 3.5 0.00 0.00 0.00 70 1025.3
20260510061103 71 175 1.7 4.3 0.00 0.00 0.00 70 1025.2
20260510060954 71 175 1.7 7.0 0.00 0.00 0.00 70 1025.2
20260510060843 71 76 1.7 7.0 0.00 0.00 0.00 71 1025.2
20260510060732 71 175 1.7 7.0 0.00 0.00 0.00 71 1025.3
20260510060623 71 215 1.7 7.0 0.00 0.00 0.00 70 1025.3
20260510060514 71 301 1.7 7.0 0.00 0.00 0.00 70 1025.3
20260510060413 71 277 1.7 7.0 0.00 0.00 0.00 70 1025.4
20260510060312 71 137 2.6 7.0 0.00 0.00 0.00 70 1025.3
20260510060207 71 114 2.6 7.0 0.00 0.00 0.00 69 1025.3
20260510060055 71 144 1.7 6.1 0.00 0.00 0.00 70 1025.3
20260510055949 71 159 1.7 6.1 0.00 0.00 0.00 70 1025.2
20260510055840 71 148 2.6 6.1 0.00 0.00 0.00 70 1025.2
20260510055727 71 138 1.7 6.1 0.00 0.00 0.00 70 1025.1
20260510055616 71 128 2.6 6.1 0.00 0.00 0.00 70 1025.2
20260510055509 71 164 2.6 6.1 0.00 0.00 0.00 69 1025.2
20260510055359 72 154 2.6 6.1 0.00 0.00 0.00 69 1025.2
20260510055250 72 126 1.7 6.1 0.00 0.00 0.00 69 1025.3
20260510055139 72 56 1.7 6.1 0.00 0.00 0.00 69 1025.4
20260510055029 72 108 1.7 6.1 0.00 0.00 0.00 69 1025.5
20260510054920 72 110 1.7 6.1 0.00 0.00 0.00 69 1025.4
20260510054818 72 176 1.7 6.1 0.00 0.00 0.00 69 1025.4
20260510054717 72 24 1.7 6.1 0.00 0.00 0.00 69 1025.4
20260510054608 72 111 1.7 6.1 0.00 0.00 0.00 69 1025.4
20260510054501 72 154 1.7 6.1 0.00 0.00 0.00 69 1025.3
20260510054355 72 98 1.7 6.1 0.00 0.00 0.00 68 1025.3
20260510054307 72 190 1.7 6.1 0.00 0.00 0.00 69 1025.3
20260510054244 72 276 1.7 6.1 0.00 0.00 0.00 69 1025.4
20260510054032 72 160 1.7 6.1 0.00 0.00 0.00 69 1025.4
20260510053921 72 193 1.7 6.1 0.00 0.00 0.00 68 1025.2
20260510053814 72 206 2.6 6.1 0.00 0.00 0.00 69 1025.2
20260510053708 72 65 2.6 7.0 0.00 0.00 0.00 68 1025.2
20260510053605 72 219 2.6 7.8 0.00 0.00 0.00 68 1025.2
20260510053506 73 199 1.7 7.8 0.00 0.00 0.00 68 1025.1
20260510053356 73 235 1.7 7.8 0.00 0.00 0.00 68 1025.1
20260510053258 73 128 1.7 7.8 0.00 0.00 0.00 68 1025.2
20260510053155 73 201 1.7 7.8 0.00 0.00 0.00 68 1025.1
20260510053055 73 150 1.7 7.8 0.00 0.00 0.00 69 1025.2
20260510052957 73 68 1.7 7.8 0.00 0.00 0.00 68 1025.2
20260510052850 73 159 0.9 7.8 0.00 0.00 0.00 67 1025.2
20260510052803 73 113 0.9 7.8 0.00 0.00 0.00 68 1025.1
20260510052742 73 112 0.9 2.6 0.00 0.00 0.00 68 1025.2
20260510052544 73 168 0.9 2.6 0.00 0.00 0.00 68 1025.1
20260510052438 73 168 0.9 2.6 0.00 0.00 0.00 68 1025.2
20260510052332 73 221 0.9 2.6 0.00 0.00 0.00 67 1025.2
20260510052225 73 221 0.9 2.6 0.00 0.00 0.00 67 1025.1
20260510052118 73 296 0.9 2.6 0.00 0.00 0.00 67 1025.1
20260510051858 73 146 0.9 2.6 0.00 0.00 0.00 67 1025.1
20260510051759 73 246 1.7 7.8 0.00 0.00 0.00 67 1025.1
20260510051700 73 127 1.7 7.8 0.00 0.00 0.00 67 1025.2
20260510051456 73 108 1.7 7.8 0.00 0.00 0.00 67 1025.3
20260510051350 73 69 1.7 7.8 0.00 0.00 0.00 67 1025.3
20260510051245 73 44 1.7 7.8 0.00 0.00 0.00 67 1025.2
20260510051138 73 86 1.7 7.8 0.00 0.00 0.00 67 1025.2
20260510050939 73 10 1.7 7.8 0.00 0.00 0.00 67 1025.3
20260510050838 73 73 1.7 7.8 0.00 0.00 0.00 67 1025.3
20260510050737 73 71 1.7 6.1 0.00 0.00 0.00 67 1025.2
20260510050636 73 168 1.7 6.1 0.00 0.00 0.00 68 1025.3
20260510050534 73 119 1.7 6.1 0.00 0.00 0.00 67 1025.2
20260510050432 73 119 1.7 6.1 0.00 0.00 0.00 68 1025.3
20260510050329 73 113 1.7 6.1 0.00 0.00 0.00 68 1025.2
20260510050224 73 166 1.7 6.1 0.00 0.00 0.00 67 1025.2
20260510050121 73 90 1.7 6.1 0.00 0.00 0.00 67 1025.2
20260510050021 73 137 1.7 6.1 0.00 0.00 0.00 67 1025.3
20260510045911 73 92 1.7 3.5 0.00 0.00 0.00 66 1025.2
20260510045801 73 141 0.9 3.5 0.00 0.00 0.00 67 1025.3
20260510045651 73 148 0.9 3.5 0.00 0.00 0.00 67 1025.3
20260510045541 73 148 1.7 3.5 0.00 0.00 0.00 66 1025.2
20260510045431 73 165 1.7 3.5 0.00 0.00 0.00 67 1025.3
20260510045321 73 88 1.7 3.5 0.00 0.00 0.00 67 1025.3
20260510045215 73 99 1.7 5.2 0.00 0.00 0.00 66 1025.3
20260510045105 73 58 0.9 5.2 0.00 0.00 0.00 67 1025.3
20260510044956 74 44 0.9 5.2 0.00 0.00 0.00 67 1025.3
20260510044846 74 46 0.9 5.2 0.00 0.00 0.00 66 1025.3
20260510044737 74 145 0.9 5.2 0.00 0.00 0.00 66 1025.4
20260510044612 74 90 0.9 5.2 0.00 0.00 0.00 66 1025.3
20260510044512 74 124 0.9 5.2 0.00 0.00 0.00 65 1025.3
20260510044407 74 138 0.9 5.2 0.00 0.00 0.00 65 1025.4
20260510044307 74 148 0.9 5.2 0.00 0.00 0.00 66 1025.3
20260510044208 74 65 0.9 4.3 0.00 0.00 0.00 67 1025.4
20260510044106 74 131 0.9 5.2 0.00 0.00 0.00 66 1025.4
20260510044004 74 226 0.9 5.2 0.00 0.00 0.00 66 1025.4
20260510043901 74 226 0.9 5.2 0.00 0.00 0.00 66 1025.4
20260510043754 74 142 0.9 5.2 0.00 0.00 0.00 66 1025.4
20260510043650 74 120 0.9 5.2 0.00 0.00 0.00 66 1025.4
20260510043536 74 89 0.9 5.2 0.00 0.00 0.00 65 1025.3
20260510043426 74 134 0.9 5.2 0.00 0.00 0.00 64 1025.3
20260510043316 74 41 0.9 5.2 0.00 0.00 0.00 64 1025.3
20260510043207 74 68 0.9 5.2 0.00 0.00 0.00 66 1025.3
20260510043108 74 146 0.9 2.6 0.00 0.00 0.00 64 1025.2
20260510043007 74 85 0.9 2.6 0.00 0.00 0.00 64 1025.2
20260510042908 74 85 0.9 2.6 0.00 0.00 0.00 64 1025.3
20260510042808 74 56 0.9 2.6 0.00 0.00 0.00 66 1025.1
20260510042659 74 56 0.9 5.2 0.00 0.00 0.00 64 1025.2
20260510042443 75 37 0.9 5.2 0.00 0.00 0.00 65 1025.2
20260510042331 75 176 0.9 5.2 0.00 0.00 0.00 64 1025.2
20260510042222 75 176 1.7 5.2 0.00 0.00 0.00 63 1025.3
20260510042112 75 142 1.7 5.2 0.00 0.00 0.00 63 1025.3
20260510042004 75 200 1.7 5.2 0.00 0.00 0.00 62 1025.2
20260510041854 75 123 0.9 5.2 0.00 0.00 0.00 62 1025.1
20260510041754 75 90 0.9 5.2 0.00 0.00 0.00 63 1025.1
20260510041657 75 99 0.9 7.0 0.00 0.00 0.00 62 1025.1
20260510041553 75 149 0.9 7.0 0.00 0.00 0.00 63 1025.1
20260510041453 75 345 0.9 7.0 0.00 0.00 0.00 62 1025.1
20260510041344 75 355 1.7 7.0 0.00 0.00 0.00 62 1025.1
20260510041233 75 355 1.7 7.0 0.00 0.00 0.00 62 1025.1
20260510041127 75 44 1.7 7.0 0.00 0.00 0.00 63 1025.0
20260510041023 75 101 1.7 7.0 0.00 0.00 0.00 64 1025.0
20260510040918 75 135 1.7 7.0 0.00 0.00 0.00 62 1024.9
20260510040819 75 32 1.7 7.0 0.00 0.00 0.00 62 1025.0
20260510040714 75 66 1.7 7.0 0.00 0.00 0.00 63 1025.0
20260510040614 75 84 1.7 7.0 0.00 0.00 0.00 63 1025.0
20260510040512 75 80 2.6 7.0 0.00 0.00 0.00 62 1024.9
20260510040259 75 90 2.6 7.8 0.00 0.00 0.00 62 1024.9
20260510040156 75 63 2.6 7.8 0.00 0.00 0.00 63 1024.9
20260510040056 75 108 3.5 7.8 0.00 0.00 0.00 62 1024.9
20260510035953 75 5 3.5 7.8 0.00 0.00 0.00 61 1025.0
20260510035855 75 97 3.5 7.8 0.00 0.00 0.00 62 1024.9
20260510035747 75 96 3.5 7.8 0.00 0.00 0.00 62 1024.9
20260510035713 75 78 3.5 7.8 0.00 0.00 0.00 62 1024.8
20260510035650 75 65 3.5 7.8 0.00 0.00 0.00 62 1024.9
20260510035436 75 96 3.5 7.8 0.00 0.00 0.00 61 1024.9
20260510035325 75 164 3.5 7.8 0.00 0.00 0.00 62 1024.9
20260510035216 75 355 3.5 6.1 0.00 0.00 0.00 61 1024.8
20260510035105 75 106 2.6 8.7 0.00 0.00 0.00 61 1024.8
20260510034957 76 56 2.6 8.7 0.00 0.00 0.00 61 1024.8
20260510034848 76 122 2.6 8.7 0.00 0.00 0.00 62 1024.8
20260510034748 76 126 2.6 8.7 0.00 0.00 0.00 61 1024.9
20260510034650 76 77 1.7 8.7 0.00 0.00 0.00 62 1024.9
20260510034540 76 49 1.7 8.7 0.00 0.00 0.00 61 1024.8
20260510034436 76 90 1.7 8.7 0.00 0.00 0.00 61 1024.8
20260510034338 76 146 1.7 8.7 0.00 0.00 0.00 62 1024.9
20260510034228 76 143 1.7 8.7 0.00 0.00 0.00 61 1024.8
20260510034151 76 182 1.7 7.0 0.00 0.00 0.00 62 1024.9
20260510034012 76 182 1.7 7.0 0.00 0.00 0.00 61 1024.9
20260510033900 76 188 1.7 7.0 0.00 0.00 0.00 62 1024.9
20260510033801 76 159 1.7 7.0 0.00 0.00 0.00 63 1024.9
20260510033702 76 96 1.7 7.0 0.00 0.00 0.00 61 1024.8
20260510033551 76 143 1.7 7.0 0.00 0.00 0.00 62 1024.8
20260510033442 76 84 1.7 7.0 0.00 0.00 0.00 61 1024.8
20260510033332 76 134 1.7 4.3 0.00 0.00 0.00 62 1024.8
20260510033221 77 115 1.7 3.5 0.00 0.00 0.00 62 1024.8
20260510033112 76 63 1.7 4.3 0.00 0.00 0.00 61 1024.8
20260510033002 76 34 1.7 4.3 0.00 0.00 0.00 61 1024.7
20260510032900 76 137 1.7 4.3 0.00 0.00 0.00 61 1024.7
20260510032802 76 77 1.7 4.3 0.00 0.00 0.00 62 1024.7
20260510032652 76 43 1.7 4.3 0.00 0.00 0.00 62 1024.7
20260510032547 76 51 1.7 4.3 0.00 0.00 0.00 62 1024.8
20260510032432 76 351 1.7 4.3 0.00 0.00 0.00 62 1024.8
20260510032322 76 65 1.7 4.3 0.00 0.00 0.00 62 1024.9
20260510032211 76 236 1.7 7.8 0.00 0.00 0.00 62 1024.8
20260510032102 76 67 1.7 7.8 0.00 0.00 0.00 61 1024.8
20260510031952 76 80 1.7 7.8 0.00 0.00 0.00 62 1024.9
20260510031844 76 36 2.6 7.8 0.00 0.00 0.00 60 1024.9
20260510031746 76 49 2.6 7.8 0.00 0.00 0.00 61 1024.9
20260510031646 76 117 2.6 7.8 0.00 0.00 0.00 61 1024.9
20260510031536 76 11 2.6 7.8 0.00 0.00 0.00 59 1024.9
20260510031426 76 36 1.7 7.8 0.00 0.00 0.00 60 1024.9
20260510031323 76 102 1.7 7.8 0.00 0.00 0.00 60 1024.9
20260510031223 76 167 1.7 7.8 0.00 0.00 0.00 60 1024.9
20260510031142 76 164 1.7 7.8 0.00 0.00 0.00 61 1025.0
20260510031007 76 97 1.7 7.8 0.00 0.00 0.00 59 1025.0
20260510030856 76 132 1.7 7.8 0.00 0.00 0.00 61 1024.9
20260510030743 76 109 1.7 7.8 0.00 0.00 0.00 59 1024.9
20260510030639 76 105 1.7 7.8 0.00 0.00 0.00 58 1024.8
20260510030538 76 141 1.7 7.8 0.00 0.00 0.00 60 1025.0
20260510030441 77 78 1.7 7.8 0.00 0.00 0.00 59 1024.9
20260510030347 77 59 1.7 7.8 0.00 0.00 0.00 57 1024.9
20260510030217 77 113 2.6 7.8 0.00 0.00 0.00 57 1024.8
20260510030107 78 70 2.6 7.8 0.00 0.00 0.00 57 1024.9
20260510030005 77 108 2.6 7.8 0.00 0.00 0.00 61 1024.9
20260510025903 77 90 2.6 7.8 0.00 0.00 0.00 60 1024.9
20260510025803 77 143 2.6 7.8 0.00 0.00 0.00 59 1024.8
20260510025703 77 109 1.7 7.8 0.00 0.00 0.00 57 1024.9
20260510025642 77 186 1.7 7.8 0.00 0.00 0.00 58 1025.1
20260510025440 77 50 1.7 6.1 0.00 0.00 0.00 57 1024.9
20260510025341 77 349 1.7 6.1 0.00 0.00 0.00 57 1025.0
20260510025230 77 167 1.7 6.1 0.00 0.00 0.00 55 1025.2
20260510025120 77 183 1.7 5.2 0.00 0.00 0.00 58 1025.2
20260510025010 77 112 1.7 5.2 0.00 0.00 0.00 59 1025.2
20260510024903 77 114 1.7 4.3 0.00 0.00 0.00 59 1025.2
20260510024755 77 165 1.7 4.3 0.00 0.00 0.00 58 1025.1
20260510024655 76 156 1.7 4.3 0.00 0.00 0.00 62 1025.2
20260510024553 76 70 1.7 4.3 0.00 0.00 0.00 59 1025.2
20260510024448 76 186 1.7 4.3 0.00 0.00 0.00 60 1025.2
20260510024347 76 88 1.7 4.3 0.00 0.00 0.00 59 1025.2
20260510024245 76 51 1.7 4.3 0.00 0.00 0.00 59 1025.2
20260510024148 76 344 1.7 4.3 0.00 0.00 0.00 58 1025.2
20260510024129 77 121 1.7 7.0 0.00 0.00 0.00 59 1025.2
20260510023932 76 75 2.6 7.0 0.00 0.00 0.00 57 1025.2
20260510023824 77 92 2.6 7.8 0.00 0.00 0.00 59 1025.2
20260510023712 77 30 2.6 7.8 0.00 0.00 0.00 60 1025.3
20260510023602 77 115 2.6 7.8 0.00 0.00 0.00 62 1025.2
20260510023452 76 109 2.6 7.8 0.00 0.00 0.00 60 1025.2
20260510023344 76 151 3.5 7.8 0.00 0.00 0.00 62 1025.2
20260510023231 76 113 2.6 7.8 0.00 0.00 0.00 59 1025.3
20260510023122 77 144 2.6 7.8 0.00 0.00 0.00 59 1025.3
20260510023012 78 119 2.6 7.8 0.00 0.00 0.00 58 1025.2
20260510022904 78 130 2.6 7.0 0.00 0.00 0.00 59 1025.2
20260510022804 78 169 1.7 6.1 0.00 0.00 0.00 58 1025.2
20260510022706 78 70 1.7 6.1 0.00 0.00 0.00 58 1025.4
20260510022617 78 120 1.7 4.3 0.00 0.00 0.00 57 1025.3
20260510022441 78 61 1.7 4.3 0.00 0.00 0.00 58 1025.3
20260510022334 78 52 1.7 3.5 0.00 0.00 0.00 58 1025.3
20260510022220 78 17 1.7 6.1 0.00 0.00 0.00 60 1025.4
20260510022110 78 5 1.7 6.1 0.00 0.00 0.00 57 1025.4
20260510022001 78 11 1.7 6.1 0.00 0.00 0.00 58 1025.4
20260510021850 78 29 1.7 6.1 0.00 0.00 0.00 60 1025.4
20260510021739 78 78 1.7 6.1 0.00 0.00 0.00 60 1025.4
20260510021630 78 127 1.7 6.1 0.00 0.00 0.00 60 1025.4
20260510021525 78 61 1.7 6.1 0.00 0.00 0.00 59 1025.4
20260510021425 78 196 1.7 6.1 0.00 0.00 0.00 62 1025.3
20260510021323 78 170 1.7 6.1 0.00 0.00 0.00 60 1025.3
20260510021219 78 178 1.7 6.1 0.00 0.00 0.00 59 1025.3
20260510021141 78 223 1.7 6.1 0.00 0.00 0.00 57 1025.4
20260510021116 78 121 1.7 6.1 0.00 0.00 0.00 59 1025.3
20260510020900 78 180 1.7 6.1 0.00 0.00 0.00 57 1025.3
20260510020758 78 146 1.7 6.1 0.00 0.00 0.00 65 1025.3
20260510020654 77 223 1.7 6.1 0.00 0.00 0.00 57 1025.4
20260510020554 77 146 1.7 6.1 0.00 0.00 0.00 64 1025.5
20260510020452 76 160 1.7 6.1 0.00 0.00 0.00 62 1025.5
20260510020348 76 78 1.7 6.1 0.00 0.00 0.00 64 1025.5
20260510020252 76 142 1.7 7.0 0.00 0.00 0.00 64 1025.5
20260510020138 76 124 1.7 7.0 0.00 0.00 0.00 63 1025.6
20260510020028 76 187 1.7 7.0 0.00 0.00 0.00 62 1025.6
20260510015918 77 199 1.7 7.0 0.00 0.00 0.00 60 1025.6
20260510015808 77 209 1.7 7.0 0.00 0.00 0.00 62 1025.6
20260510015658 77 215 1.7 7.0 0.00 0.00 0.00 62 1025.7
20260510015555 77 200 1.7 7.0 0.00 0.00 0.00 64 1025.6
20260510015346 76 91 1.7 7.0 0.00 0.00 0.00 64 1025.7
20260510015240 76 135 1.7 4.3 0.00 0.00 0.00 64 1025.6
20260510015126 76 122 1.7 4.3 0.00 0.00 0.00 62 1025.6
20260510015019 76 128 1.7 4.3 0.00 0.00 0.00 62 1025.6
20260510014918 76 113 1.7 4.3 0.00 0.00 0.00 63 1025.6
20260510014821 76 79 1.7 4.3 0.00 0.00 0.00 65 1025.7
20260510014715 76 130 1.7 4.3 0.00 0.00 0.00 63 1025.7
20260510014610 76 236 1.7 4.3 0.00 0.00 0.00 63 1025.8
20260510014511 76 144 0.9 4.3 0.00 0.00 0.00 63 1025.7
20260510014359 76 68 0.9 3.5 0.00 0.00 0.00 67 1025.7
20260510014250 75 11 0.9 3.5 0.00 0.00 0.00 67 1025.7
20260510014140 75 151 0.9 3.5 0.00 0.00 0.00 65 1025.7
20260510014037 74 109 0.9 3.5 0.00 0.00 0.00 67 1025.7
20260510013940 74 115 0.9 3.5 0.00 0.00 0.00 66 1025.7
20260510013828 74 57 0.9 3.5 0.00 0.00 0.00 65 1025.7
20260510013721 74 64 0.9 3.5 0.00 0.00 0.00 65 1025.8
20260510013608 74 87 0.9 3.5 0.00 0.00 0.00 67 1025.8
20260510013458 74 154 0.9 3.5 0.00 0.00 0.00 67 1025.9
20260510013348 74 164 0.9 3.5 0.00 0.00 0.00 67 1026.0
20260510013237 74 164 0.9 3.5 0.00 0.00 0.00 67 1026.1
20260510013128 74 59 0.9 3.5 0.00 0.00 0.00 66 1026.2
20260510013018 74 103 0.9 6.1 0.00 0.00 0.00 66 1026.1
20260510012910 74 103 1.7 6.1 0.00 0.00 0.00 66 1026.1
20260510012806 74 103 1.7 6.1 0.00 0.00 0.00 66 1026.1
20260510012702 74 103 1.7 6.1 0.00 0.00 0.00 64 1026.2
20260510012601 74 26 1.7 6.1 0.00 0.00 0.00 67 1026.2
20260510012456 74 135 1.7 7.0 0.00 0.00 0.00 66 1026.2
20260510012356 74 148 1.7 7.0 0.00 0.00 0.00 64 1026.1
20260510012246 75 80 2.6 7.0 0.00 0.00 0.00 64 1026.2
20260510012140 75 27 2.6 7.0 0.00 0.00 0.00 64 1026.3
20260510012032 75 146 1.7 7.0 0.00 0.00 0.00 63 1026.2
20260510011930 76 116 1.7 7.0 0.00 0.00 0.00 63 1026.3
20260510011830 76 323 1.7 7.0 0.00 0.00 0.00 63 1026.1
20260510011720 76 98 2.6 7.0 0.00 0.00 0.00 64 1026.1
20260510011616 76 59 2.6 7.8 0.00 0.00 0.00 62 1026.1
20260510011513 76 120 2.6 7.8 0.00 0.00 0.00 65 1026.1
20260510011414 77 189 2.6 7.8 0.00 0.00 0.00 64 1026.1
20260510011304 76 246 2.6 7.8 0.00 0.00 0.00 62 1026.1
20260510011154 76 193 2.6 7.8 0.00 0.00 0.00 62 1026.1
20260510011044 76 126 2.6 7.8 0.00 0.00 0.00 65 1026.0
20260510010945 76 231 2.6 7.8 0.00 0.00 0.00 66 1026.0
20260510010844 76 101 2.6 7.8 0.00 0.00 0.00 65 1026.0
20260510010734 75 130 2.6 7.8 0.00 0.00 0.00 65 1026.0
20260510010635 75 151 2.6 7.8 0.00 0.00 0.00 66 1026.0
20260510010536 75 122 1.7 7.8 0.00 0.00 0.00 69 1026.0
20260510010425 74 138 2.6 7.8 0.00 0.00 0.00 68 1026.0
20260510010321 74 138 2.6 7.8 0.00 0.00 0.00 69 1026.0
20260510010220 73 126 2.6 7.8 0.00 0.00 0.00 68 1026.0
20260510010125 73 85 1.7 7.8 0.00 0.00 0.00 67 1026.0
20260510010011 73 132 1.7 7.8 0.00 0.00 0.00 67 1026.1
20260510005900 73 43 1.7 7.8 0.00 0.00 0.00 68 1026.0
20260510005750 73 150 2.6 7.8 0.00 0.00 0.00 67 1026.1
20260510005640 73 145 2.6 7.8 0.00 0.00 0.00 67 1026.1
20260510005530 73 143 1.7 7.8 0.00 0.00 0.00 68 1026.2
20260510005432 74 135 1.7 7.8 0.00 0.00 0.00 68 1026.2
20260510005328 74 79 1.7 5.2 0.00 0.00 0.00 67 1026.2
20260510005225 74 148 1.7 5.2 0.00 0.00 0.00 68 1026.3
20260510005123 74 119 1.7 5.2 0.00 0.00 0.00 69 1026.2
20260510005022 74 123 1.7 5.2 0.00 0.00 0.00 67 1026.2
20260510004912 74 74 1.7 5.2 0.00 0.00 0.00 67 1026.2
20260510004802 74 58 1.7 5.2 0.00 0.00 0.00 67 1026.1
20260510004652 74 105 1.7 5.2 0.00 0.00 0.00 69 1026.3
20260510004549 74 220 1.7 5.2 0.00 0.00 0.00 67 1026.3
20260510004446 74 220 0.9 5.2 0.00 0.00 0.00 67 1026.2
20260510004347 74 167 0.9 4.3 0.00 0.00 0.00 67 1026.2
20260510004236 74 168 0.9 4.3 0.00 0.00 0.00 67 1026.1
20260510004126 74 159 0.9 4.3 0.00 0.00 0.00 68 1026.2
20260510004040 74 219 0.9 4.3 0.00 0.00 0.00 67 1026.4
20260510004013 74 180 0.9 4.3 0.00 0.00 0.00 69 1026.4
20260510003813 74 225 0.9 4.3 0.00 0.00 0.00 69 1026.4
20260510003705 74 225 0.9 4.3 0.00 0.00 0.00 68 1026.3
20260510003557 74 205 0.9 4.3 0.00 0.00 0.00 70 1026.4
20260510003450 74 205 1.7 4.3 0.00 0.00 0.00 69 1026.4
20260510003348 74 239 1.7 4.3 0.00 0.00 0.00 69 1026.4
20260510003248 73 222 1.7 7.0 0.00 0.00 0.00 68 1026.5
20260510003138 73 249 1.7 7.0 0.00 0.00 0.00 68 1026.6
20260510003028 73 181 1.7 7.0 0.00 0.00 0.00 68 1026.5
20260510002917 74 181 1.7 7.0 0.00 0.00 0.00 69 1026.5
20260510002809 73 181 1.7 7.0 0.00 0.00 0.00 70 1026.6
20260510002700 73 181 1.7 7.0 0.00 0.00 0.00 68 1026.6
20260510002601 74 181 1.7 7.0 0.00 0.00 0.00 68 1026.7
20260510002458 74 215 1.7 7.0 0.00 0.00 0.00 68 1026.6
20260510002353 74 213 1.7 7.0 0.00 0.00 0.00 68 1026.5
20260510002256 74 229 1.7 3.5 0.00 0.00 0.00 69 1026.5
20260510002145 74 198 0.9 2.6 0.00 0.00 0.00 69 1026.5
20260510002040 74 188 1.7 2.6 0.00 0.00 0.00 68 1026.5
20260510001934 74 215 1.7 2.6 0.00 0.00 0.00 67 1026.4
20260510001832 74 263 0.9 2.6 0.00 0.00 0.00 66 1026.4
20260510001732 74 216 0.9 2.6 0.00 0.00 0.00 67 1026.5
20260510001628 75 248 0.9 2.6 0.00 0.00 0.00 67 1026.5
20260510001526 75 252 0.9 5.2 0.00 0.00 0.00 67 1026.4
20260510001425 74 121 0.9 5.2 0.00 0.00 0.00 67 1026.4
20260510001318 74 144 0.9 6.1 0.00 0.00 0.00 69 1026.6
20260510001209 74 150 0.9 6.1 0.00 0.00 0.00 67 1026.6
20260510001059 74 269 0.9 6.1 0.00 0.00 0.00 65 1026.6
20260510001015 74 175 0.9 6.1 0.00 0.00 0.00 68 1026.6
20260510000948 74 309 0.9 6.1 0.00 0.00 0.00 67 1026.6
20260510000747 74 260 0.9 6.1 0.00 0.00 0.00 66 1026.6
20260510000640 75 247 0.9 6.1 0.00 0.00 0.00 64 1026.7
20260510000532 75 76 0.9 6.1 0.00 0.00 0.00 65 1026.6
20260510000419 75 49 0.0 2.6 0.00 0.00 0.00 65 1026.7
20260510000312 75 175 0.9 2.6 0.00 0.00 0.00 65 1026.5
20260510000204 75 175 0.9 2.6 0.00 0.00 0.00 65 1026.5
20260510000052 74 120 0.9 1.7 0.00 0.00 0.00 67 1026.5
20260509235942 74 120 0.9 2.6 0.00 0.00 0.00 69 1026.5
20260509235836 74 315 0.9 7.8 0.00 0.00 0.00 68 1026.4
20260509235733 74 315 0.9 7.8 0.00 0.00 0.00 66 1026.6
20260509235633 74 344 0.9 7.8 0.00 0.00 0.00 68 1026.4
20260509235532 74 344 1.7 7.8 0.00 0.00 0.00 68 1026.4
20260509235424 74 15 1.7 7.8 0.00 0.00 0.00 70 1026.4
20260509235321 74 5 1.7 7.8 0.00 0.00 0.00 69 1026.4
20260509235222 73 297 1.7 7.8 0.00 0.00 0.00 69 1026.3
20260509235112 73 28 2.6 7.8 0.00 0.00 0.00 69 1026.3
20260509235007 73 10 2.6 7.8 0.00 0.00 0.00 69 1026.3
20260509234859 73 109 2.6 7.8 0.00 0.00 0.00 69 1026.3
20260509234745 73 232 2.6 7.8 0.00 0.00 0.00 68 1026.3
20260509234635 73 232 2.6 7.8 0.00 0.00 0.00 68 1026.4
20260509234607 73 79 1.7 7.8 0.00 0.00 0.00 72 1026.4
20260509234419 73 50 1.7 7.8 0.00 0.00 0.00 70 1026.4
20260509234310 72 49 1.7 7.8 0.00 0.00 0.00 70 1026.3
20260509234159 72 63 0.9 7.8 0.00 0.00 0.00 71 1026.3
20260509234051 72 52 0.9 7.8 0.00 0.00 0.00 71 1026.3
20260509233945 72 14 0.9 7.8 0.00 0.00 0.00 70 1026.2
20260509233903 72 86 0.0 1.7 0.00 0.00 0.00 72 1026.4
20260509233730 71 313 0.0 1.7 0.00 0.00 0.00 71 1026.3
20260509233632 71 303 0.0 1.7 0.00 0.00 0.00 71 1026.3
20260509233523 71 303 0.0 1.7 0.00 0.00 0.00 72 1026.4
20260509233423 71 303 0.0 1.7 0.00 0.00 0.00 73 1026.4
20260509233321 71 303 0.0 1.7 0.00 0.00 0.00 72 1026.4
20260509233220 70 303 0.9 1.7 0.00 0.00 0.00 73 1026.2
20260509233114 70 303 0.0 1.7 0.00 0.00 0.00 73 1026.3
20260509233012 70 73 0.9 2.6 0.00 0.00 0.00 73 1026.2
20260509232913 70 73 0.9 2.6 0.00 0.00 0.00 73 1026.3
20260509232806 70 355 0.9 2.6 0.00 0.00 0.00 73 1026.3
20260509232705 70 258 0.9 2.6 0.00 0.00 0.00 73 1026.2
20260509232607 69 258 0.0 2.6 0.00 0.00 0.00 73 1026.2
20260509232505 69 258 0.0 2.6 0.00 0.00 0.00 74 1026.1
20260509232410 69 258 0.9 2.6 0.00 0.00 0.00 72 1026.2
20260509232306 69 258 0.0 2.6 0.00 0.00 0.00 73 1026.1
20260509232159 69 258 0.0 2.6 0.00 0.00 0.00 73 1026.1
20260509232059 69 282 0.0 1.7 0.00 0.00 0.00 73 1026.0
20260509231950 68 286 0.0 1.7 0.00 0.00 0.00 75 1026.0
20260509231839 68 300 0.0 1.7 0.00 0.00 0.00 74 1026.0
20260509231730 68 300 0.0 1.7 0.00 0.00 0.00 75 1026.2
20260509231622 68 300 0.0 1.7 0.00 0.00 0.00 73 1026.1
20260509231512 68 300 0.0 1.7 0.00 0.00 0.00 74 1026.1
20260509231407 68 302 0.0 1.7 0.00 0.00 0.00 75 1026.0
20260509231255 67 302 0.0 1.7 0.00 0.00 0.00 74 1026.0
20260509231156 67 302 0.0 1.7 0.00 0.00 0.00 74 1025.9
20260509231056 67 302 0.0 1.7 0.00 0.00 0.00 74 1025.9
20260509230950 67 302 0.0 1.7 0.00 0.00 0.00 75 1026.0
20260509230844 67 302 0.0 1.7 0.00 0.00 0.00 75 1026.0
20260509230740 66 302 0.0 1.7 0.00 0.00 0.00 75 1025.9
20260509230629 66 302 0.0 1.7 0.00 0.00 0.00 75 1026.0
20260509230533 66 302 0.0 1.7 0.00 0.00 0.00 76 1026.1
20260509230422 66 37 0.9 1.7 0.00 0.00 0.00 77 1026.0
20260509230312 66 37 0.9 2.6 0.00 0.00 0.00 77 1026.1
20260509230204 65 37 0.9 3.5 0.00 0.00 0.00 77 1026.0
20260509230055 65 37 0.9 3.5 0.00 0.00 0.00 77 1026.1
20260509225943 65 37 0.9 3.5 0.00 0.00 0.00 77 1026.0
20260509225837 65 37 0.9 3.5 0.00 0.00 0.00 79 1026.0
20260509225729 65 37 0.9 3.5 0.00 0.00 0.00 77 1025.9
20260509225627 65 37 0.9 3.5 0.00 0.00 0.00 77 1025.9
20260509225528 65 37 0.9 3.5 0.00 0.00 0.00 77 1025.9
20260509225426 65 37 0.9 3.5 0.00 0.00 0.00 78 1025.9
20260509225323 64 34 0.9 3.5 0.00 0.00 0.00 79 1025.8
20260509225224 64 67 0.9 2.6 0.00 0.00 0.00 79 1025.8
20260509225117 64 56 0.9 2.6 0.00 0.00 0.00 79 1025.8
20260509225020 64 55 0.9 2.6 0.00 0.00 0.00 78 1025.8
20260509224912 64 28 0.9 2.6 0.00 0.00 0.00 79 1025.7
20260509224807 64 36 0.9 2.6 0.00 0.00 0.00 79 1025.7
20260509224703 64 44 0.9 2.6 0.00 0.00 0.00 79 1025.8
20260509224606 64 48 0.9 2.6 0.00 0.00 0.00 78 1025.7
20260509224455 64 30 0.9 2.6 0.00 0.00 0.00 78 1025.8
20260509224345 64 49 0.0 1.7 0.00 0.00 0.00 81 1025.7
20260509224240 64 327 0.9 1.7 0.00 0.00 0.00 79 1025.7
20260509224126 64 327 0.9 1.7 0.00 0.00 0.00 78 1025.7
20260509224023 64 327 0.9 1.7 0.00 0.00 0.00 79 1025.7
20260509223923 63 327 0.9 1.7 0.00 0.00 0.00 79 1025.8
20260509223821 63 12 0.9 1.7 0.00 0.00 0.00 78 1025.9
20260509223721 63 12 0.9 1.7 0.00 0.00 0.00 80 1025.9
20260509223616 63 12 0.9 1.7 0.00 0.00 0.00 80 1025.9
20260509223514 63 12 0.9 1.7 0.00 0.00 0.00 80 1025.8
20260509223413 62 12 0.9 1.7 0.00 0.00 0.00 81 1025.9
20260509223313 62 19 0.9 1.7 0.00 0.00 0.00 81 1025.9
20260509223209 62 20 0.9 1.7 0.00 0.00 0.00 80 1025.9
20260509223107 62 225 0.9 1.7 0.00 0.00 0.00 80 1025.9
20260509223007 61 225 0.9 2.6 0.00 0.00 0.00 81 1025.8
20260509222903 61 225 0.9 2.6 0.00 0.00 0.00 81 1025.8
20260509222802 61 225 0.9 2.6 0.00 0.00 0.00 81 1025.9
20260509222702 60 225 0.9 2.6 0.00 0.00 0.00 81 1026.0
20260509222556 60 225 0.9 2.6 0.00 0.00 0.00 81 1025.9
20260509222455 61 225 0.9 2.6 0.00 0.00 0.00 81 1026.0
20260509222355 61 225 0.9 2.6 0.00 0.00 0.00 81 1025.9
20260509222245 61 225 0.9 2.6 0.00 0.00 0.00 82 1025.9
20260509222140 61 225 0.9 2.6 0.00 0.00 0.00 84 1026.0
20260509222035 60 225 0.9 2.6 0.00 0.00 0.00 82 1026.0
20260509221934 60 251 1.7 2.6 0.00 0.00 0.00 82 1026.0
20260509221823 60 251 1.7 3.5 0.00 0.00 0.00 82 1026.1
20260509221716 59 251 1.7 3.5 0.00 0.00 0.00 83 1026.0
20260509221606 59 251 1.7 3.5 0.00 0.00 0.00 84 1026.0
20260509221506 59 251 0.9 3.5 0.00 0.00 0.00 84 1026.0
20260509221407 58 243 0.9 3.5 0.00 0.00 0.00 84 1026.0
20260509221305 58 248 0.9 3.5 0.00 0.00 0.00 84 1026.0
20260509221201 58 265 0.9 3.5 0.00 0.00 0.00 84 1026.0
20260509221102 58 257 0.0 3.5 0.00 0.00 0.00 84 1025.9
20260509220951 58 257 0.0 3.5 0.00 0.00 0.00 85 1025.9
20260509220841 58 215 0.0 0.0 0.00 0.00 0.00 86 1026.0
20260509220731 58 215 0.0 0.0 0.00 0.00 0.00 86 1025.9
20260509220517 57 215 0.0 0.0 0.00 0.00 0.00 86 1026.0
20260509220418 57 215 0.0 0.0 0.00 0.00 0.00 86 1026.0
20260509220308 57 215 0.0 0.0 0.00 0.00 0.00 86 1026.0
20260509220159 57 215 0.0 0.0 0.00 0.00 0.00 87 1026.0
20260509220048 57 215 0.0 0.0 0.00 0.00 0.00 87 1026.1
20260509215938 57 215 0.0 0.0 0.00 0.00 0.00 86 1026.0
20260509215829 57 215 0.0 0.0 0.00 0.00 0.00 88 1026.1
20260509215719 57 215 0.0 0.9 0.00 0.00 0.00 88 1026.1
20260509215616 56 215 0.0 0.9 0.00 0.00 0.00 87 1026.1
20260509215514 56 215 0.0 0.9 0.00 0.00 0.00 88 1026.1
20260509215413 56 215 0.0 0.9 0.00 0.00 0.00 88 1026.1
20260509215305 56 215 0.0 0.9 0.00 0.00 0.00 90 1026.1
20260509215153 56 215 0.0 0.9 0.00 0.00 0.00 89 1026.1
20260509215049 56 215 0.0 0.9 0.00 0.00 0.00 89 1026.1
20260509214945 56 215 0.0 0.9 0.00 0.00 0.00 90 1026.1
20260509214843 56 215 0.0 0.9 0.00 0.00 0.00 90 1026.1
20260509214733 56 215 0.0 0.9 0.00 0.00 0.00 90 1026.0
20260509214623 56 215 0.0 0.0 0.00 0.00 0.00 90 1026.1
20260509214515 55 215 0.0 0.0 0.00 0.00 0.00 89 1026.0
20260509214403 55 215 0.0 0.0 0.00 0.00 0.00 89 1026.0
20260509214253 55 215 0.0 0.0 0.00 0.00 0.00 90 1025.9
20260509214143 55 215 0.0 0.0 0.00 0.00 0.00 90 1025.9
20260509214036 55 215 0.0 0.0 0.00 0.00 0.00 91 1025.9
20260509213923 55 215 0.0 0.0 0.00 0.00 0.00 91 1025.8
20260509213813 55 215 0.0 0.0 0.00 0.00 0.00 91 1025.8
20260509213703 55 215 0.0 0.0 0.00 0.00 0.00 90 1025.9
20260509213554 55 215 0.0 0.0 0.00 0.00 0.00 91 1025.8
20260509213443 54 215 0.0 0.0 0.00 0.00 0.00 91 1025.8
20260509213339 54 215 0.0 0.0 0.00 0.00 0.00 91 1025.8
20260509213240 54 215 0.0 0.0 0.00 0.00 0.00 91 1025.6
20260509213027 54 215 0.0 0.0 0.00 0.00 0.00 91 1025.6
20260509212922 54 215 0.0 0.0 0.00 0.00 0.00 92 1025.6
20260509212825 54 215 0.0 0.0 0.00 0.00 0.00 92 1025.6
20260509212715 53 215 0.0 0.0 0.00 0.00 0.00 92 1025.5
20260509212605 53 215 0.0 0.0 0.00 0.00 0.00 92 1025.6
20260509212457 53 215 0.0 0.0 0.00 0.00 0.00 92 1025.6
20260509212345 53 215 0.0 0.0 0.00 0.00 0.00 92 1025.5
20260509212235 53 215 0.0 0.0 0.00 0.00 0.00 92 1025.4
20260509212201 53 215 0.0 0.0 0.00 0.00 0.00 92 1025.5
20260509212015 53 215 0.0 0.0 0.00 0.00 0.00 92 1025.4
20260509211905 52 215 0.0 1.7 0.00 0.00 0.00 92 1025.4
20260509211801 52 215 0.0 1.7 0.00 0.00 0.00 91 1025.4
20260509211702 52 215 0.0 1.7 0.00 0.00 0.00 91 1025.3
20260509211553 52 215 0.0 1.7 0.00 0.00 0.00 92 1025.3
20260509211442 52 215 0.0 1.7 0.00 0.00 0.00 91 1025.4
20260509211333 52 215 0.0 1.7 0.00 0.00 0.00 91 1025.4
20260509211224 52 215 0.0 1.7 0.00 0.00 0.00 91 1025.3
20260509211113 52 215 0.0 1.7 0.00 0.00 0.00 91 1025.4
20260509211003 52 215 0.0 1.7 0.00 0.00 0.00 91 1025.4
20260509210855 52 215 0.0 1.7 0.00 0.00 0.00 91 1025.3
20260509210756 52 215 0.0 1.7 0.00 0.00 0.00 91 1025.4
20260509210657 52 215 0.0 1.7 0.00 0.00 0.00 91 1025.3
20260509210546 52 215 0.0 1.7 0.00 0.00 0.00 91 1025.3
20260509210437 52 215 0.0 1.7 0.00 0.00 0.00 91 1025.3
20260509210327 52 215 0.0 1.7 0.00 0.00 0.00 91 1025.2
20260509210223 52 215 0.0 1.7 0.00 0.00 0.00 91 1025.2
20260509210124 52 215 0.0 1.7 0.00 0.00 0.00 91 1025.2
20260509210018 52 215 0.0 0.9 0.00 0.00 0.00 91 1025.1
20260509205904 52 215 0.0 0.9 0.00 0.00 0.00 91 1025.2
20260509205755 52 215 0.0 0.9 0.00 0.00 0.00 91 1025.1
20260509205645 52 215 0.0 0.0 0.00 0.00 0.00 91 1025.1
20260509205535 52 215 0.0 0.0 0.00 0.00 0.00 91 1025.1
20260509205426 52 215 0.0 0.0 0.00 0.00 0.00 91 1025.1
20260509205314 52 215 0.0 0.9 0.00 0.00 0.00 91 1025.1
20260509205205 52 215 0.0 2.6 0.00 0.00 0.00 91 1025.1
20260509204954 52 215 0.0 2.6 0.00 0.00 0.00 91 1025.1
20260509204851 52 215 0.9 2.6 0.00 0.00 0.00 91 1025.0
20260509204748 52 215 0.9 2.6 0.00 0.00 0.00 91 1025.0
20260509204642 52 215 0.9 2.6 0.00 0.00 0.00 91 1025.1
20260509204543 52 215 0.9 2.6 0.00 0.00 0.00 91 1025.0
20260509204438 52 215 0.9 2.6 0.00 0.00 0.00 91 1025.0
20260509204323 52 215 0.9 2.6 0.00 0.00 0.00 91 1025.0
20260509204221 52 162 0.9 1.7 0.00 0.00 0.00 91 1025.0
20260509204117 52 162 0.9 1.7 0.00 0.00 0.00 91 1025.0
20260509204017 52 162 0.0 1.7 0.00 0.00 0.00 91 1025.0
20260509203906 52 162 0.9 1.7 0.00 0.00 0.00 91 1024.9
20260509203757 52 57 0.9 2.6 0.00 0.00 0.00 90 1024.8
20260509203648 52 57 0.0 2.6 0.00 0.00 0.00 90 1024.8
20260509203548 52 101 0.0 2.6 0.00 0.00 0.00 90 1024.8
20260509203449 52 151 0.0 2.6 0.00 0.00 0.00 90 1024.8
20260509203338 52 151 0.0 2.6 0.00 0.00 0.00 90 1024.8
20260509203227 52 151 0.0 2.6 0.00 0.00 0.00 90 1024.8
20260509203123 52 151 0.0 2.6 0.00 0.00 0.00 90 1024.8
20260509203024 52 151 0.0 2.6 0.00 0.00 0.00 90 1024.7
20260509202919 52 180 0.0 2.6 0.00 0.00 0.00 90 1024.7
20260509202805 52 192 0.0 0.0 0.00 0.00 0.00 91 1024.8
20260509202654 52 192 0.0 0.9 0.00 0.00 0.00 90 1024.8
20260509202553 52 192 0.0 1.7 0.00 0.00 0.00 91 1024.7
20260509202450 52 192 0.0 1.7 0.00 0.00 0.00 91 1024.6
20260509202352 52 192 0.0 1.7 0.00 0.00 0.00 91 1024.7
20260509202239 52 192 0.0 1.7 0.00 0.00 0.00 91 1024.8
20260509202129 52 192 0.0 1.7 0.00 0.00 0.00 91 1024.8
20260509202019 52 192 0.0 1.7 0.00 0.00 0.00 91 1024.7
20260509201908 52 192 0.0 1.7 0.00 0.00 0.00 91 1024.7
20260509201759 52 192 0.0 1.7 0.00 0.00 0.00 91 1024.7
20260509201649 52 192 0.0 1.7 0.00 0.00 0.00 91 1024.8
20260509201545 52 192 0.0 1.7 0.00 0.00 0.00 91 1024.7
20260509201450 52 192 0.0 1.7 0.00 0.00 0.00 91 1024.7
20260509201353 52 192 0.0 1.7 0.00 0.00 0.00 91 1024.6
20260509201227 52 192 0.0 1.7 0.00 0.00 0.00 91 1024.5
20260509201117 52 192 0.0 1.7 0.00 0.00 0.00 91 1024.5
20260509201007 52 112 0.0 1.7 0.00 0.00 0.00 91 1024.6
20260509200857 52 112 0.0 1.7 0.00 0.00 0.00 91 1024.5
20260509200747 52 112 0.0 1.7 0.00 0.00 0.00 91 1024.5
20260509200637 52 112 0.0 1.7 0.00 0.00 0.00 91 1024.4
20260509200527 52 85 0.0 1.7 0.00 0.00 0.00 91 1024.4
20260509200417 52 85 0.0 1.7 0.00 0.00 0.00 91 1024.4
20260509200314 52 85 0.0 1.7 0.00 0.00 0.00 91 1024.4
20260509200213 52 85 0.0 1.7 0.00 0.00 0.00 91 1024.5
20260509200111 52 85 0.0 1.7 0.00 0.00 0.00 91 1024.4
20260509200007 52 85 0.0 1.7 0.00 0.00 0.00 91 1024.3
20260509195907 52 85 0.0 1.7 0.00 0.00 0.00 91 1024.4
20260509195801 52 85 0.9 1.7 0.00 0.00 0.00 91 1024.5
20260509195646 52 85 0.9 1.7 0.00 0.00 0.00 91 1024.5
20260509195537 52 85 0.0 1.7 0.00 0.00 0.00 91 1024.4
20260509195437 52 85 0.0 1.7 0.00 0.00 0.00 91 1024.6
20260509195331 52 85 0.0 1.7 0.00 0.00 0.00 91 1024.5
20260509195235 52 211 0.0 1.7 0.00 0.00 0.00 91 1024.6
20260509195121 52 286 0.0 1.7 0.00 0.00 0.00 91 1024.5
20260509195010 52 286 0.9 1.7 0.00 0.00 0.00 91 1024.5
20260509194901 52 286 0.0 3.5 0.00 0.00 0.00 91 1024.4
20260509194751 52 219 0.0 3.5 0.00 0.00 0.00 91 1024.4
20260509194641 52 247 0.0 3.5 0.00 0.00 0.00 91 1024.4
20260509194532 52 247 0.0 3.5 0.00 0.00 0.00 91 1024.5
20260509194432 52 247 0.0 3.5 0.00 0.00 0.00 91 1024.4
20260509194331 52 247 0.0 3.5 0.00 0.00 0.00 91 1024.3
20260509194225 52 229 0.0 3.5 0.00 0.00 0.00 91 1024.3
20260509194112 52 141 0.0 3.5 0.00 0.00 0.00 91 1024.4
20260509194001 52 141 0.0 3.5 0.00 0.00 0.00 91 1024.3
20260509193856 52 146 0.0 3.5 0.00 0.00 0.00 91 1024.2
20260509193755 52 214 0.0 0.0 0.00 0.00 0.00 91 1024.2
20260509193655 52 214 0.0 0.0 0.00 0.00 0.00 91 1024.3
20260509193215 52 214 0.0 0.0 0.00 0.00 0.00 91 1024.2
20260509193101 52 214 0.0 0.0 0.00 0.00 0.00 91 1024.2
20260509192953 52 214 0.0 0.0 0.00 0.00 0.00 91 1024.2
20260509192851 52 214 0.0 0.9 0.00 0.00 0.00 90 1024.2
20260509192750 52 146 0.0 1.7 0.00 0.00 0.00 90 1024.3
20260509192638 52 146 0.0 1.7 0.00 0.00 0.00 90 1024.2
20260509192528 52 146 0.0 1.7 0.00 0.00 0.00 90 1024.2
20260509192420 52 146 0.0 1.7 0.00 0.00 0.00 90 1024.2
20260509192309 52 146 0.0 1.7 0.00 0.00 0.00 90 1024.3
20260509192208 51 146 0.0 2.6 0.00 0.00 0.00 90 1024.3
20260509192141 51 146 0.0 2.6 0.00 0.00 0.00 90 1024.1
20260509192014 51 146 0.9 2.6 0.00 0.00 0.00 90 1024.1
20260509191830 51 159 0.9 2.6 0.00 0.00 0.00 90 1024.2
20260509191719 51 159 0.9 2.6 0.00 0.00 0.00 90 1024.3
20260509191609 51 159 0.9 2.6 0.00 0.00 0.00 90 1024.2
20260509191459 51 159 0.9 2.6 0.00 0.00 0.00 90 1024.3
20260509191354 51 159 0.0 2.6 0.00 0.00 0.00 90 1024.2
20260509191325 51 159 0.9 2.6 0.00 0.00 0.00 90 1024.2
20260509191150 51 199 0.9 2.6 0.00 0.00 0.00 90 1024.2
20260509191044 51 199 0.0 2.6 0.00 0.00 0.00 90 1024.2
20260509190940 51 164 0.0 2.6 0.00 0.00 0.00 90 1024.2
20260509190841 51 233 0.9 2.6 0.00 0.00 0.00 90 1024.2
20260509190731 51 240 0.9 2.6 0.00 0.00 0.00 90 1024.2
20260509190647 51 240 0.9 2.6 0.00 0.00 0.00 90 1024.2
20260509190620 51 240 0.9 2.6 0.00 0.00 0.00 90 1024.2
20260509190425 51 240 0.9 2.6 0.00 0.00 0.00 90 1024.2
20260509190315 51 240 0.9 2.6 0.00 0.00 0.00 90 1024.3
20260509190204 51 156 0.9 2.6 0.00 0.00 0.00 90 1024.2
20260509190112 51 156 0.9 2.6 0.00 0.00 0.00 90 1024.2
20260509185947 51 91 0.9 2.6 0.00 0.00 0.00 90 1024.2
20260509185839 51 56 0.9 2.6 0.00 0.00 0.00 90 1024.1
20260509185812 51 56 0.0 1.7 0.00 0.00 0.00 90 1024.2
20260509185636 51 109 0.0 1.7 0.00 0.00 0.00 90 1024.2
20260509185536 51 109 0.0 1.7 0.00 0.00 0.00 90 1024.2
20260509185431 51 109 0.0 1.7 0.00 0.00 0.00 90 1024.1
20260509185336 51 90 0.0 1.7 0.00 0.00 0.00 90 1024.2
20260509185220 51 309 0.0 1.7 0.00 0.00 0.00 90 1024.1
20260509185135 51 309 0.0 1.7 0.00 0.00 0.00 90 1024.1
20260509185107 51 309 0.0 1.7 0.00 0.00 0.00 89 1024.1
20260509184854 51 309 0.0 1.7 0.00 0.00 0.00 90 1024.0
20260509184745 51 309 0.0 1.7 0.00 0.00 0.00 90 1024.1
20260509184637 51 309 0.0 1.7 0.00 0.00 0.00 90 1024.1
20260509184532 51 309 0.0 1.7 0.00 0.00 0.00 90 1024.0
20260509184420 51 309 0.0 1.7 0.00 0.00 0.00 90 1024.1
20260509184313 51 309 0.0 1.7 0.00 0.00 0.00 90 1024.1
20260509184210 51 309 0.0 0.9 0.00 0.00 0.00 89 1024.1
20260509184110 51 309 0.0 0.0 0.00 0.00 0.00 89 1024.1
20260509184002 51 309 0.0 0.0 0.00 0.00 0.00 89 1024.0
20260509183851 51 309 0.0 1.7 0.00 0.00 0.00 89 1024.1
20260509183742 51 309 0.0 1.7 0.00 0.00 0.00 89 1024.1
20260509183634 51 309 0.0 1.7 0.00 0.00 0.00 89 1024.1
20260509183529 51 309 0.0 1.7 0.00 0.00 0.00 89 1024.1
20260509183418 51 309 0.0 1.7 0.00 0.00 0.00 89 1024.1
20260509183315 51 309 0.0 1.7 0.00 0.00 0.00 89 1024.1
20260509183213 51 309 0.0 1.7 0.00 0.00 0.00 89 1024.1
20260509183110 51 309 0.0 1.7 0.00 0.00 0.00 89 1024.0
20260509183016 51 309 0.0 1.7 0.00 0.00 0.00 89 1024.0
20260509182911 51 309 0.0 0.9 0.00 0.00 0.00 89 1024.0
20260509182810 51 309 0.0 0.0 0.00 0.00 0.00 89 1024.0
20260509182709 51 309 0.0 0.0 0.00 0.00 0.00 89 1024.1
20260509182609 51 309 0.0 0.0 0.00 0.00 0.00 89 1024.0
20260509182523 51 309 0.0 0.0 0.00 0.00 0.00 89 1024.0
20260509182405 51 309 0.0 0.0 0.00 0.00 0.00 89 1024.0
20260509182301 51 309 0.0 0.0 0.00 0.00 0.00 89 1024.0
20260509182154 51 309 0.0 0.0 0.00 0.00 0.00 89 1024.0
20260509182045 51 309 0.0 0.0 0.00 0.00 0.00 89 1024.0
20260509181828 51 309 0.0 0.0 0.00 0.00 0.00 89 1024.0
20260509181721 51 309 0.0 0.0 0.00 0.00 0.00 89 1024.0
20260509181611 51 309 0.0 0.0 0.00 0.00 0.00 89 1024.0
20260509181507 51 309 0.0 0.0 0.00 0.00 0.00 89 1024.1
20260509181357 51 309 0.0 0.0 0.00 0.00 0.00 89 1024.1
20260509181251 51 309 0.0 0.0 0.00 0.00 0.00 89 1024.0
20260509181151 51 309 0.0 0.0 0.00 0.00 0.00 89 1024.1
20260509181049 51 309 0.0 0.0 0.00 0.00 0.00 89 1024.1
20260509180939 51 309 0.0 0.0 0.00 0.00 0.00 89 1024.0
20260509180829 51 309 0.0 0.9 0.00 0.00 0.00 89 1024.0
20260509180720 51 309 0.0 0.9 0.00 0.00 0.00 89 1024.0
20260509180618 51 309 0.0 0.9 0.00 0.00 0.00 89 1024.1
20260509180551 51 309 0.0 0.9 0.00 0.00 0.00 89 1024.1
20260509180419 51 309 0.0 0.9 0.00 0.00 0.00 89 1024.1
20260509180317 51 309 0.0 0.9 0.00 0.00 0.00 89 1024.0
20260509180213 51 309 0.0 0.9 0.00 0.00 0.00 89 1024.1
20260509180112 51 309 0.0 0.9 0.00 0.00 0.00 89 1024.1
20260509180007 51 309 0.0 0.9 0.00 0.00 0.00 89 1024.0
20260509175901 51 309 0.0 0.9 0.00 0.00 0.00 89 1024.0
20260509175759 51 309 0.0 0.0 0.00 0.00 0.00 89 1023.9
20260509175659 51 309 0.0 0.0 0.00 0.00 0.00 89 1023.8
20260509175557 51 309 0.0 0.0 0.00 0.00 0.00 89 1023.8
20260509175501 51 309 0.0 0.0 0.00 0.00 0.00 89 1023.9
20260509175354 51 309 0.0 0.0 0.00 0.00 0.00 89 1023.9
20260509175252 51 309 0.0 0.0 0.00 0.00 0.00 89 1023.9
20260509175149 51 309 0.0 0.0 0.00 0.00 0.00 89 1024.0
20260509175041 51 309 0.0 0.0 0.00 0.00 0.00 89 1023.9
20260509174823 51 309 0.0 0.0 0.00 0.00 0.00 89 1023.9
20260509174714 51 309 0.0 0.0 0.00 0.00 0.00 89 1023.9
20260509174605 51 309 0.0 0.0 0.00 0.00 0.00 89 1023.9
20260509174457 51 309 0.0 0.0 0.00 0.00 0.00 89 1023.9
20260509174356 51 309 0.0 0.0 0.00 0.00 0.00 89 1023.9
20260509174154 51 309 0.0 0.0 0.00 0.00 0.00 89 1023.9
20260509174050 51 309 0.0 0.0 0.00 0.00 0.00 89 1024.0
20260509173952 51 309 0.0 0.9 0.00 0.00 0.00 89 1023.9
20260509173842 51 309 0.0 0.9 0.00 0.00 0.00 89 1023.9
20260509173732 51 309 0.0 0.9 0.00 0.00 0.00 89 1023.9
20260509173622 51 309 0.0 0.9 0.00 0.00 0.00 89 1023.9
20260509173512 51 309 0.0 0.9 0.00 0.00 0.00 89 1023.8
20260509173304 51 309 0.0 0.9 0.00 0.00 0.00 89 1023.8
20260509173149 51 309 0.0 0.9 0.00 0.00 0.00 89 1023.8
20260509173046 51 309 0.0 0.9 0.00 0.00 0.00 89 1023.6
20260509172944 51 309 0.0 0.9 0.00 0.00 0.00 89 1023.6
20260509172845 51 309 0.0 0.9 0.00 0.00 0.00 89 1023.5
20260509172734 51 309 0.0 0.9 0.00 0.00 0.00 89 1023.6
20260509172626 51 309 0.0 0.9 0.00 0.00 0.00 89 1023.6
20260509172522 52 309 0.0 0.9 0.00 0.00 0.00 89 1023.5
20260509172424 52 309 0.0 0.9 0.00 0.00 0.00 89 1023.6
20260509172314 52 309 0.0 0.9 0.00 0.00 0.00 89 1023.7
20260509172208 52 309 0.0 0.9 0.00 0.00 0.00 89 1023.6
20260509172057 52 309 0.0 0.0 0.00 0.00 0.00 89 1023.7
20260509172013 52 309 0.0 0.0 0.00 0.00 0.00 89 1023.6
20260509171948 52 309 0.0 0.0 0.00 0.00 0.00 89 1023.5
20260509171730 52 309 0.0 0.0 0.00 0.00 0.00 89 1023.5
20260509171622 52 309 0.0 0.0 0.00 0.00 0.00 89 1023.6
20260509171512 52 309 0.0 0.0 0.00 0.00 0.00 89 1023.7
20260509171402 52 309 0.0 0.0 0.00 0.00 0.00 89 1023.7
20260509171252 52 309 0.0 0.0 0.00 0.00 0.00 89 1023.6
20260509171142 52 309 0.0 0.0 0.00 0.00 0.00 89 1023.6
20260509171032 52 309 0.0 0.0 0.00 0.00 0.00 89 1023.7
20260509170928 52 309 0.0 0.0 0.00 0.00 0.00 89 1023.7
20260509170834 52 309 0.0 0.0 0.00 0.00 0.00 89 1023.7
20260509170720 52 309 0.0 0.0 0.00 0.00 0.00 89 1023.6
20260509170618 52 309 0.0 0.0 0.00 0.00 0.00 89 1023.6
20260509170517 52 309 0.0 0.0 0.00 0.00 0.00 89 1023.6
20260509170443 52 309 0.0 0.0 0.00 0.00 0.00 89 1023.7
20260509170312 52 309 0.0 0.0 0.00 0.00 0.00 89 1023.7
20260509170210 52 309 0.0 0.0 0.00 0.00 0.00 89 1023.6
20260509170108 52 309 0.0 0.0 0.00 0.00 0.00 89 1023.6
20260509165958 52 309 0.0 0.0 0.00 0.00 0.00 89 1023.6
20260509165848 52 309 0.0 0.9 0.00 0.00 0.00 89 1023.6
20260509165741 52 309 0.0 0.9 0.00 0.00 0.00 89 1023.6
20260509165627 52 309 0.0 0.9 0.00 0.00 0.00 89 1023.6
20260509165519 52 309 0.0 0.9 0.00 0.00 0.00 89 1023.7
20260509165414 52 309 0.0 0.9 0.00 0.00 0.00 89 1023.7
20260509165316 52 309 0.0 0.9 0.00 0.00 0.00 89 1023.6
20260509165206 52 309 0.0 0.9 0.00 0.00 0.00 89 1023.6
20260509165056 52 309 0.0 0.9 0.00 0.00 0.00 89 1023.6
20260509164945 52 309 0.0 0.9 0.00 0.00 0.00 89 1023.7
20260509164734 52 309 0.0 0.0 0.00 0.00 0.00 89 1023.6
20260509164630 52 309 0.0 0.0 0.00 0.00 0.00 89 1023.6
20260509164531 52 309 0.0 0.0 0.00 0.00 0.00 89 1023.6
20260509164420 52 309 0.0 0.0 0.00 0.00 0.00 89 1023.6
20260509164311 52 309 0.0 0.0 0.00 0.00 0.00 89 1023.7
20260509164208 52 309 0.0 0.0 0.00 0.00 0.00 89 1023.7
20260509164105 52 309 0.0 0.0 0.00 0.00 0.00 89 1023.6
20260509164004 52 309 0.0 0.0 0.00 0.00 0.00 89 1023.7
20260509163859 52 309 0.0 0.0 0.00 0.00 0.00 89 1023.6
20260509163759 52 309 0.0 0.0 0.00 0.00 0.00 89 1023.6
20260509163653 52 309 0.0 0.0 0.00 0.00 0.00 89 1023.6
20260509163540 52 309 0.0 0.0 0.00 0.00 0.00 89 1023.6
20260509163430 52 309 0.0 0.0 0.00 0.00 0.00 89 1023.7
20260509163321 52 309 0.0 0.0 0.00 0.00 0.00 89 1023.7
20260509163216 52 309 0.0 0.0 0.00 0.00 0.00 89 1023.7
20260509163100 52 309 0.0 0.0 0.00 0.00 0.00 89 1023.7
20260509162949 52 309 0.0 0.9 0.00 0.00 0.00 89 1023.8
20260509162840 52 309 0.0 1.7 0.00 0.00 0.00 89 1023.7
20260509162730 52 309 0.0 1.7 0.00 0.00 0.00 89 1023.7
20260509162628 52 309 0.0 1.7 0.00 0.00 0.00 89 1023.8
20260509162510 52 309 0.9 1.7 0.00 0.00 0.00 89 1023.8
20260509162400 52 309 0.9 1.7 0.00 0.00 0.00 89 1023.7
20260509162256 52 309 0.9 1.7 0.00 0.00 0.00 89 1023.8
20260509162159 52 309 0.9 1.7 0.00 0.00 0.00 89 1023.8
20260509162048 52 309 0.0 1.7 0.00 0.00 0.00 89 1023.8
20260509161938 52 309 0.0 1.7 0.00 0.00 0.00 89 1023.8
20260509161718 52 309 0.0 1.7 0.00 0.00 0.00 89 1023.8
20260509161617 52 309 0.0 1.7 0.00 0.00 0.00 89 1023.8
20260509161458 52 309 0.0 1.7 0.00 0.00 0.00 89 1023.7
20260509161348 52 309 0.0 1.7 0.00 0.00 0.00 89 1023.8
20260509161239 52 309 0.0 1.7 0.00 0.00 0.00 89 1023.9
20260509161136 52 309 0.0 1.7 0.00 0.00 0.00 89 1023.7
20260509161033 52 309 0.0 1.7 0.00 0.00 0.00 89 1023.8
20260509160932 52 309 0.0 1.7 0.00 0.00 0.00 89 1023.8
20260509160830 52 309 0.0 1.7 0.00 0.00 0.00 89 1023.8
20260509160726 52 309 0.0 1.7 0.00 0.00 0.00 89 1023.8
20260509160626 52 309 0.0 1.7 0.00 0.00 0.00 88 1023.8
20260509160525 52 13 0.0 1.7 0.00 0.00 0.00 88 1023.8
20260509160425 52 13 0.0 1.7 0.00 0.00 0.00 88 1023.8
20260509160200 52 13 0.0 1.7 0.00 0.00 0.00 88 1023.8
20260509160105 52 13 0.0 1.7 0.00 0.00 0.00 88 1023.8
20260509155940 52 13 0.0 1.7 0.00 0.00 0.00 88 1023.8
20260509155829 52 13 0.0 0.9 0.00 0.00 0.00 88 1023.8
20260509155720 52 255 0.0 0.0 0.00 0.00 0.00 88 1023.8
20260509155610 52 255 0.0 0.0 0.00 0.00 0.00 88 1023.9
20260509155459 52 255 0.0 0.0 0.00 0.00 0.00 88 1023.9
20260509155355 52 255 0.0 0.0 0.00 0.00 0.00 88 1024.0
20260509155254 52 255 0.0 0.0 0.00 0.00 0.00 88 1024.0
20260509155154 52 255 0.0 0.0 0.00 0.00 0.00 88 1023.8
20260509155043 52 255 0.0 0.0 0.00 0.00 0.00 88 1024.0
20260509154935 52 255 0.0 0.0 0.00 0.00 0.00 88 1023.9
20260509154733 52 255 0.0 0.0 0.00 0.00 0.00 88 1024.0
20260509154621 52 255 0.0 0.0 0.00 0.00 0.00 88 1024.0
20260509154519 52 255 0.0 0.0 0.00 0.00 0.00 88 1024.0
20260509154417 52 255 0.0 0.0 0.00 0.00 0.00 88 1024.1
20260509154316 52 255 0.0 0.0 0.00 0.00 0.00 88 1024.1
20260509154208 52 255 0.0 0.0 0.00 0.00 0.00 88 1024.1
20260509154058 52 255 0.0 0.0 0.00 0.00 0.00 88 1024.1
20260509153950 52 255 0.0 0.0 0.00 0.00 0.00 88 1024.1
20260509153836 52 255 0.0 0.0 0.00 0.00 0.00 88 1024.1
20260509153726 52 255 0.0 0.0 0.00 0.00 0.00 88 1024.0
20260509153623 52 255 0.0 0.0 0.00 0.00 0.00 88 1024.0
20260509153524 52 255 0.0 0.0 0.00 0.00 0.00 88 1024.0
20260509153413 52 255 0.0 0.0 0.00 0.00 0.00 87 1024.2
20260509153156 52 255 0.0 0.0 0.00 0.00 0.00 87 1024.0
20260509153046 52 255 0.0 0.0 0.00 0.00 0.00 87 1024.0
20260509152938 52 255 0.0 0.0 0.00 0.00 0.00 87 1024.0
20260509152825 52 255 0.0 0.0 0.00 0.00 0.00 87 1024.1
20260509152713 52 255 0.0 0.0 0.00 0.00 0.00 87 1024.1
20260509152604 52 255 0.0 0.0 0.00 0.00 0.00 87 1024.1
20260509152453 52 255 0.0 0.0 0.00 0.00 0.00 87 1024.1
20260509152345 52 255 0.0 0.0 0.00 0.00 0.00 87 1024.1
20260509152233 52 255 0.0 0.0 0.00 0.00 0.00 87 1024.1
20260509152124 52 255 0.0 0.0 0.00 0.00 0.00 87 1024.1
20260509152022 52 255 0.0 0.0 0.00 0.00 0.00 87 1024.1
20260509151926 52 255 0.0 0.0 0.00 0.00 0.00 87 1024.1
20260509151812 52 255 0.0 0.0 0.00 0.00 0.00 87 1024.1
20260509151709 52 255 0.0 0.0 0.00 0.00 0.00 87 1024.1
20260509151607 52 255 0.0 0.0 0.00 0.00 0.00 87 1024.0
20260509151506 52 255 0.0 0.0 0.00 0.00 0.00 87 1024.0
20260509151356 52 255 0.0 0.0 0.00 0.00 0.00 87 1024.1
20260509151245 52 255 0.0 0.0 0.00 0.00 0.00 87 1024.1
20260509151138 52 255 0.0 0.0 0.00 0.00 0.00 87 1024.1
20260509151055 52 255 0.0 0.0 0.00 0.00 0.00 87 1024.1
20260509150920 52 255 0.0 0.0 0.00 0.00 0.00 87 1024.1
20260509150807 52 255 0.0 0.0 0.00 0.00 0.00 87 1024.1
20260509150704 52 255 0.0 0.0 0.00 0.00 0.00 87 1024.1
20260509150600 52 255 0.0 0.0 0.00 0.00 0.00 87 1024.2
20260509150501 52 255 0.0 0.0 0.00 0.00 0.00 87 1024.1
20260509150403 52 255 0.0 0.0 0.00 0.00 0.00 87 1024.1
20260509150340 52 255 0.0 0.0 0.00 0.00 0.00 87 1024.0
20260509150125 52 255 0.0 0.0 0.00 0.00 0.00 87 1024.1
20260509150019 52 255 0.0 0.0 0.00 0.00 0.00 87 1024.1
20260509145918 52 255 0.0 0.0 0.00 0.00 0.00 87 1024.1
20260509145819 52 255 0.0 0.0 0.00 0.00 0.00 87 1024.1
20260509145707 52 255 0.0 0.0 0.00 0.00 0.00 87 1024.1
20260509145557 52 255 0.0 0.0 0.00 0.00 0.00 87 1024.1
20260509145448 52 255 0.0 0.0 0.00 0.00 0.00 87 1024.1
20260509145338 52 255 0.0 0.0 0.00 0.00 0.00 87 1024.2
20260509145228 52 255 0.0 0.0 0.00 0.00 0.00 87 1024.1
20260509145123 52 255 0.0 0.0 0.00 0.00 0.00 87 1024.1
20260509145010 52 255 0.0 0.0 0.00 0.00 0.00 87 1024.1
20260509144906 52 255 0.0 0.0 0.00 0.00 0.00 87 1024.1
20260509144806 52 255 0.0 0.0 0.00 0.00 0.00 87 1024.1
20260509144655 52 255 0.0 0.0 0.00 0.00 0.00 87 1024.1
20260509144546 52 255 0.0 0.0 0.00 0.00 0.00 87 1024.1
20260509144437 52 255 0.0 0.0 0.00 0.00 0.00 87 1024.1
20260509144326 52 255 0.0 0.0 0.00 0.00 0.00 87 1024.1
20260509144215 52 255 0.0 0.0 0.00 0.00 0.00 87 1024.2
20260509144113 52 255 0.0 0.0 0.00 0.00 0.00 87 1024.2
20260509144012 52 255 0.0 0.0 0.00 0.00 0.00 87 1024.2
20260509143910 52 255 0.0 0.9 0.00 0.00 0.00 87 1024.2
20260509143807 52 255 0.0 1.7 0.00 0.00 0.00 87 1024.2
20260509143705 52 255 0.0 1.7 0.00 0.00 0.00 87 1024.2
20260509143604 52 255 0.0 1.7 0.00 0.00 0.00 86 1024.2
20260509143501 52 255 0.0 1.7 0.00 0.00 0.00 86 1024.1
20260509143358 52 255 0.0 1.7 0.00 0.00 0.00 86 1024.1
20260509143259 52 255 0.0 1.7 0.00 0.00 0.00 87 1024.2
20260509143155 53 255 0.0 1.7 0.00 0.00 0.00 86 1024.2
20260509143055 53 255 0.0 1.7 0.00 0.00 0.00 87 1024.2
20260509142954 53 255 0.0 1.7 0.00 0.00 0.00 87 1024.2
20260509142844 53 255 0.0 1.7 0.00 0.00 0.00 86 1024.2
20260509142736 53 255 0.0 0.9 0.00 0.00 0.00 86 1024.2
20260509142637 53 255 0.0 0.0 0.00 0.00 0.00 86 1024.2
20260509142526 53 255 0.0 0.0 0.00 0.00 0.00 86 1024.2
20260509142416 53 255 0.0 0.0 0.00 0.00 0.00 86 1024.2
20260509142310 53 255 0.0 0.0 0.00 0.00 0.00 86 1024.2
20260509142155 53 255 0.0 0.0 0.00 0.00 0.00 86 1024.3
20260509142054 53 255 0.0 0.0 0.00 0.00 0.00 86 1024.3
20260509141950 53 255 0.0 0.0 0.00 0.00 0.00 86 1024.2
20260509141849 53 255 0.0 0.0 0.00 0.00 0.00 86 1024.3
20260509141748 53 255 0.0 0.0 0.00 0.00 0.00 86 1024.3
20260509141646 53 255 0.0 0.0 0.00 0.00 0.00 86 1024.2
20260509141536 53 255 0.0 0.0 0.00 0.00 0.00 86 1024.2
20260509141426 53 255 0.0 0.0 0.00 0.00 0.00 86 1024.2
20260509141315 53 255 0.0 0.0 0.00 0.00 0.00 86 1024.2
20260509141214 53 255 0.0 0.0 0.00 0.00 0.00 86 1024.2
20260509141112 53 255 0.0 0.0 0.00 0.00 0.00 86 1024.2
20260509141010 53 255 0.0 0.0 0.00 0.00 0.00 86 1024.2
20260509140900 53 255 0.0 0.0 0.00 0.00 0.00 86 1024.3
20260509140750 53 255 0.0 0.0 0.00 0.00 0.00 86 1024.2
20260509140639 53 255 0.0 0.0 0.00 0.00 0.00 86 1024.3
20260509140530 53 255 0.0 0.0 0.00 0.00 0.00 86 1024.3
20260509140420 53 255 0.0 0.0 0.00 0.00 0.00 86 1024.3
20260509140310 53 255 0.0 0.0 0.00 0.00 0.00 86 1024.3
20260509140213 53 255 0.0 0.0 0.00 0.00 0.00 86 1024.3
20260509140108 53 255 0.0 0.0 0.00 0.00 0.00 86 1024.4
20260509140002 53 255 0.0 0.0 0.00 0.00 0.00 86 1024.3
20260509135853 53 255 0.0 0.0 0.00 0.00 0.00 86 1024.3
20260509135749 53 255 0.0 0.0 0.00 0.00 0.00 86 1024.3
20260509135648 53 255 0.0 0.0 0.00 0.00 0.00 86 1024.3
20260509135546 53 255 0.0 0.0 0.00 0.00 0.00 86 1024.4
20260509135437 53 255 0.0 0.0 0.00 0.00 0.00 86 1024.4
20260509135326 53 255 0.0 0.0 0.00 0.00 0.00 86 1024.3
20260509135217 53 255 0.0 0.0 0.00 0.00 0.00 86 1024.4
20260509135111 53 255 0.0 0.9 0.00 0.00 0.00 86 1024.4
20260509134956 53 255 0.0 0.9 0.00 0.00 0.00 86 1024.5
20260509134845 53 255 0.0 1.7 0.00 0.00 0.00 86 1024.4
20260509134737 53 255 0.0 1.7 0.00 0.00 0.00 86 1024.4
20260509134607 53 255 0.0 1.7 0.00 0.00 0.00 86 1024.5
20260509134508 53 255 0.0 1.7 0.00 0.00 0.00 86 1024.5
20260509134358 53 255 0.0 1.7 0.00 0.00 0.00 86 1024.3
20260509134247 53 255 0.0 1.7 0.00 0.00 0.00 86 1024.3
20260509134138 53 255 0.0 1.7 0.00 0.00 0.00 85 1024.3
20260509134039 53 255 0.0 1.7 0.00 0.00 0.00 85 1024.2
20260509133919 53 255 0.0 1.7 0.00 0.00 0.00 85 1024.3
20260509133816 53 255 0.0 1.7 0.00 0.00 0.00 85 1024.3
20260509133712 53 255 0.0 1.7 0.00 0.00 0.00 85 1024.2
20260509133612 53 255 0.0 1.7 0.00 0.00 0.00 85 1024.2
20260509133508 53 255 0.0 1.7 0.00 0.00 0.00 85 1024.3
20260509133351 53 255 0.0 1.7 0.00 0.00 0.00 85 1024.3
20260509133243 53 255 0.0 1.7 0.00 0.00 0.00 85 1024.3
20260509132929 53 255 0.0 1.7 0.00 0.00 0.00 85 1024.2
20260509132819 53 255 0.0 1.7 0.00 0.00 0.00 85 1024.2
20260509132718 53 255 0.0 1.7 0.00 0.00 0.00 85 1024.2
20260509132614 53 255 0.0 1.7 0.00 0.00 0.00 85 1024.2
20260509132519 54 255 0.0 0.0 0.00 0.00 0.00 85 1024.2
20260509132403 54 255 0.0 0.0 0.00 0.00 0.00 85 1024.2
20260509132253 54 255 0.0 0.0 0.00 0.00 0.00 85 1024.2
20260509132152 54 255 0.0 0.0 0.00 0.00 0.00 85 1024.2
20260509132050 54 255 0.0 0.0 0.00 0.00 0.00 85 1024.3
20260509131954 54 255 0.0 0.0 0.00 0.00 0.00 85 1024.7
20260509131838 54 255 0.0 0.0 0.00 0.00 0.00 85 1024.1
20260509131735 54 255 0.0 0.0 0.00 0.00 0.00 85 1024.2
20260509131634 54 255 0.0 0.0 0.00 0.00 0.00 85 1024.2
20260509131532 54 255 0.0 0.0 0.00 0.00 0.00 85 1024.3
20260509131429 54 255 0.0 0.0 0.00 0.00 0.00 85 1024.2
20260509131327 54 255 0.0 0.0 0.00 0.00 0.00 85 1024.4
20260509131218 54 255 0.0 0.0 0.00 0.00 0.00 84 1024.3
20260509131107 54 255 0.0 0.0 0.00 0.00 0.00 84 1024.3
20260509130958 54 255 0.0 0.0 0.00 0.00 0.00 84 1024.3
20260509130849 54 255 0.0 0.0 0.00 0.00 0.00 84 1024.3
20260509130738 54 255 0.0 0.0 0.00 0.00 0.00 84 1024.3
20260509130628 54 255 0.0 0.0 0.00 0.00 0.00 84 1024.3
20260509130518 54 255 0.0 0.0 0.00 0.00 0.00 84 1024.3
20260509130423 54 255 0.0 0.0 0.00 0.00 0.00 84 1024.2
20260509130258 54 255 0.0 0.0 0.00 0.00 0.00 84 1024.3
20260509130220 54 255 0.0 0.0 0.00 0.00 0.00 84 1024.3
20260509130159 54 255 0.0 0.0 0.00 0.00 0.00 84 1024.3
20260509125953 54 255 0.0 0.0 0.00 0.00 0.00 84 1024.3
20260509125851 54 255 0.0 0.0 0.00 0.00 0.00 84 1024.3
20260509125747 54 255 0.0 0.0 0.00 0.00 0.00 84 1024.2
20260509125638 54 255 0.0 0.0 0.00 0.00 0.00 84 1024.2
20260509125528 54 255 0.0 0.0 0.00 0.00 0.00 84 1024.2
20260509125418 54 255 0.0 0.0 0.00 0.00 0.00 84 1024.2
20260509125308 54 255 0.0 0.0 0.00 0.00 0.00 84 1024.2
20260509125157 54 255 0.0 0.0 0.00 0.00 0.00 84 1024.3
20260509125048 54 255 0.0 0.0 0.00 0.00 0.00 84 1024.2
20260509124946 54 255 0.0 0.0 0.00 0.00 0.00 83 1024.2
20260509124844 54 255 0.0 0.0 0.00 0.00 0.00 83 1024.2
20260509124742 54 255 0.0 0.0 0.00 0.00 0.00 83 1024.3
20260509124635 54 255 0.0 0.0 0.00 0.00 0.00 83 1024.2
20260509124522 54 255 0.0 0.0 0.00 0.00 0.00 83 1024.2
20260509124413 55 255 0.0 0.0 0.00 0.00 0.00 83 1024.2
20260509124314 55 255 0.0 0.0 0.00 0.00 0.00 83 1024.2
20260509124212 55 255 0.0 0.0 0.00 0.00 0.00 83 1024.2
20260509124111 55 255 0.0 0.0 0.00 0.00 0.00 83 1024.2
20260509124010 55 255 0.0 0.0 0.00 0.00 0.00 83 1024.3
20260509123900 55 255 0.0 0.0 0.00 0.00 0.00 83 1024.3
20260509123750 55 255 0.0 0.0 0.00 0.00 0.00 83 1024.3
20260509123639 55 255 0.0 0.0 0.00 0.00 0.00 83 1024.3
20260509123530 55 255 0.0 0.0 0.00 0.00 0.00 83 1024.4
20260509123419 55 255 0.0 0.0 0.00 0.00 0.00 83 1024.4
20260509123309 55 255 0.0 0.0 0.00 0.00 0.00 83 1024.4
20260509123208 55 255 0.0 0.0 0.00 0.00 0.00 83 1024.4
20260509123104 55 255 0.0 0.0 0.00 0.00 0.00 83 1024.3
20260509123005 55 255 0.0 0.0 0.00 0.00 0.00 83 1024.5
20260509122854 55 255 0.0 0.0 0.00 0.00 0.00 83 1024.3
20260509122750 55 255 0.0 0.0 0.00 0.00 0.00 83 1024.4
20260509122651 55 255 0.0 0.0 0.00 0.00 0.00 83 1024.3
20260509122542 55 255 0.0 0.0 0.00 0.00 0.00 83 1024.4
20260509122431 55 255 0.0 0.0 0.00 0.00 0.00 83 1024.5
20260509122325 55 255 0.0 0.0 0.00 0.00 0.00 83 1024.3
20260509122212 55 255 0.0 0.0 0.00 0.00 0.00 83 1024.3
20260509122102 55 255 0.0 0.0 0.00 0.00 0.00 82 1024.3
20260509122000 55 255 0.0 0.0 0.00 0.00 0.00 82 1024.3
20260509121856 55 255 0.0 0.0 0.00 0.00 0.00 82 1024.3
20260509121801 55 255 0.0 0.0 0.00 0.00 0.00 82 1024.3